GFSNGP_925_thetae_000.txt.gz
Theta_e
312 313 313 315 315 315 314 314 317 316 313 313 311 308 310 309 308 309 308 307 305 305 305 304 304 304 302 301 299 299 299 298 297 296 295 294 294 294 294 294 293 293 293 292
313 312 312 313 313 314 314 314 313 314 314 310 307 310 310 309 309 309 307 305 305 303 303 303 303 301 299 298 298 298 297 297 296 295 295 294 292 292 292 293 293 292 290 287
309 309 308 308 309 312 313 311 311 312 310 308 311 310 309 309 308 307 305 304 301 301 302 302 300 299 298 297 297 297 294 290 291 291 291 290 290 290 288 287 287 286 286 285
307 313 315 311 310 310 310 309 308 308 307 309 310 308 307 307 307 304 302 302 302 301 301 300 298 297 295 294 294 291 290 291 292 291 288 287 287 287 286 285 285 284 284 285
316 315 311 313 311 311 310 309 309 309 310 310 308 306 307 303 302 303 302 301 301 301 300 298 297 294 291 291 291 291 293 292 290 288 287 287 286 285 284 284 284 284 284 282
310 314 315 310 308 307 310 311 310 312 311 311 307 310 311 304 303 302 300 301 301 301 299 297 297 295 292 293 292 291 291 289 287 287 286 286 285 284 284 283 283 282 282 281
314 313 308 306 306 308 313 312 309 308 309 307 307 307 302 300 300 299 300 301 300 298 296 297 297 294 292 291 289 290 289 287 286 286 285 285 284 283 283 282 282 281 280 281
305 309 309 305 309 312 310 309 308 308 306 308 304 302 300 300 299 299 300 300 298 296 295 296 296 291 289 290 290 289 287 287 285 285 285 283 283 282 282 282 281 280 280 280
311 308 305 306 310 307 307 308 306 307 304 302 300 300 299 298 298 298 299 299 297 295 295 296 294 294 294 292 290 288 287 286 285 285 284 283 282 282 281 281 281 280 280 279
311 310 311 311 309 308 306 307 302 301 301 300 300 299 298 298 297 297 298 297 295 294 295 294 292 293 293 290 288 288 287 286 286 285 284 283 283 281 281 281 280 280 279 278
311 312 310 309 306 306 304 303 302 301 300 299 298 297 297 296 296 297 297 296 295 295 295 293 293 292 290 289 288 287 287 286 286 285 285 284 283 281 281 280 279 279 278 278
313 311 312 311 307 306 304 302 301 300 299 299 298 295 296 296 296 295 295 296 295 295 294 294 293 290 289 288 287 287 287 286 285 284 284 283 282 281 281 280 279 278 277 277
312 310 310 306 303 301 300 298 298 298 297 295 296 296 295 294 295 294 294 294 294 292 291 289 289 288 287 287 287 287 286 286 284 284 283 282 282 281 280 279 278 277 276 276
306 307 305 301 301 299 298 298 296 296 296 296 295 294 293 293 292 292 291 290 289 289 289 287 287 286 286 286 286 286 285 285 284 283 282 281 281 280 279 278 277 276 276 275
302 301 300 300 299 298 295 294 293 292 293 293 293 292 292 291 290 290 290 289 290 288 287 286 286 286 286 286 286 286 285 284 283 282 281 281 280 279 279 278 277 276 275 274
299 298 298 294 294 294 293 292 292 291 291 292 291 291 291 289 289 289 288 288 287 287 286 285 285 285 285 285 285 285 284 283 283 282 281 280 279 279 278 278 277 275 274 273
297 296 295 295 293 293 293 291 291 291 291 291 291 292 288 287 288 289 289 286 286 286 286 285 284 283 284 284 284 283 283 283 283 281 280 280 279 278 278 277 276 275 274 273
295 295 294 294 293 293 292 292 292 292 290 292 291 288 288 288 286 288 286 286 287 286 286 285 284 283 283 284 283 283 283 282 282 280 280 279 279 278 278 277 276 275 274 273
293 293 293 293 294 293 292 292 292 292 291 289 288 287 287 287 287 287 286 285 285 283 284 283 283 283 283 283 283 283 283 282 281 280 280 279 279 277 277 276 276 275 274 273
291 292 292 292 292 292 290 291 290 289 290 289 290 289 288 288 288 286 286 285 286 285 284 283 283 283 283 283 282 282 282 282 281 280 279 279 279 277 277 276 275 275 273 273
290 291 291 290 290 291 290 290 289 288 289 289 290 290 289 288 287 287 285 284 287 286 284 283 283 283 282 282 281 281 282 282 281 281 280 279 279 278 277 276 275 275 274 273
291 290 290 290 289 289 290 290 289 289 289 288 289 288 288 287 286 287 287 286 287 285 285 284 283 283 283 282 281 281 282 282 281 280 280 280 279 278 277 276 276 275 274 273
290 290 290 290 289 289 289 289 290 289 288 288 288 288 289 288 288 286 284 287 287 285 284 283 283 283 283 282 281 281 281 282 282 280 280 280 279 279 278 277 276 275 274 273
290 291 290 290 289 288 285 288 289 289 290 289 289 289 288 288 288 287 287 287 285 284 284 284 283 283 283 283 282 281 281 281 281 281 279 279 279 278 278 277 276 275 274 273
290 290 289 289 288 287 288 288 288 288 289 289 290 289 289 288 288 288 287 286 285 284 284 284 283 283 283 283 283 283 282 281 281 281 280 279 278 278 278 277 276 276 274 274
289 289 289 289 288 289 289 288 288 289 289 289 289 289 289 288 288 287 287 286 284 284 284 283 283 282 282 282 282 282 282 282 282 281 281 280 279 279 278 278 277 276 275 274
289 287 286 286 288 289 289 289 289 290 290 290 289 289 288 288 288 287 285 285 284 284 283 283 283 282 282 282 281 281 281 282 282 282 281 281 280 280 279 278 278 277 276 275

GFSNGP_925_thetae_003.txt.gz
Theta_e
314 314 314 315 315 315 317 317 319 318 317 316 314 313 311 312 311 311 311 310 308 306 304 303 302 302 300 299 298 298 298 297 295 296 295 293 292 292 292 292 293 292 292 290
315 312 312 313 313 314 315 315 316 316 316 313 312 310 312 311 311 311 310 307 304 303 302 302 302 300 298 297 297 297 294 292 291 291 292 291 291 290 290 288 287 286 286 285
314 310 312 314 310 313 314 313 313 314 313 309 311 312 312 311 310 308 304 303 302 301 301 301 301 298 296 296 295 294 292 292 292 292 290 288 287 287 286 286 285 285 285 284
316 314 317 313 310 311 312 312 310 309 310 310 311 311 309 307 305 304 303 301 301 301 301 302 300 296 296 294 293 293 292 293 292 290 288 287 287 286 285 284 284 284 284 284
316 316 314 314 312 311 312 312 309 312 312 312 312 310 309 304 303 301 300 300 300 301 302 300 297 296 293 291 290 290 292 292 289 287 287 286 285 285 284 283 283 283 282 282
313 317 318 313 308 307 310 315 311 311 312 313 311 312 312 301 301 301 300 300 300 301 300 297 296 297 293 291 291 291 290 289 287 286 286 285 284 284 283 283 283 282 281 281
314 315 314 309 307 307 316 316 309 309 311 309 309 306 302 301 301 300 300 299 299 300 298 296 296 295 292 289 290 292 289 288 287 285 285 284 283 283 283 282 282 281 281 280
307 311 313 305 308 314 313 308 309 308 307 306 304 302 301 301 300 299 298 298 298 298 297 296 296 295 291 292 293 292 289 288 286 285 285 284 283 283 282 282 282 281 280 280
312 313 308 306 310 309 307 308 306 305 303 302 301 299 300 300 299 299 297 297 297 297 295 295 295 292 293 293 292 289 288 287 286 285 285 284 283 283 282 282 281 280 280 279
311 313 310 310 309 308 306 306 303 303 302 300 300 299 299 299 298 297 296 296 296 295 295 295 294 292 291 291 289 288 287 287 286 285 285 285 283 283 282 282 281 280 279 279
311 313 311 309 309 310 305 304 302 301 301 300 300 299 298 298 296 295 295 295 295 294 295 295 294 293 291 288 288 287 287 286 286 285 284 283 283 282 281 281 279 279 278 278
314 311 312 311 308 306 304 302 301 299 298 298 297 297 296 295 294 294 294 293 294 293 294 294 291 289 288 288 287 286 286 286 285 284 283 282 282 281 281 279 278 277 277 276
312 308 306 304 302 301 300 298 297 297 296 296 295 295 294 293 293 293 292 292 292 290 289 289 288 287 286 286 286 286 286 285 285 284 283 282 281 281 280 279 278 277 276 275
306 305 302 301 300 298 298 296 295 295 294 293 294 293 293 293 292 292 291 291 290 288 288 287 286 286 286 286 286 286 285 285 284 282 282 281 280 279 278 278 277 277 275 274
301 301 301 298 296 296 296 295 295 294 292 292 292 292 292 292 292 292 290 290 289 288 287 286 286 286 285 285 285 285 284 284 283 282 281 280 279 279 278 278 277 277 275 274
298 296 296 297 297 297 296 295 294 294 292 292 292 292 291 290 290 289 289 288 286 286 286 286 286 285 284 284 284 283 283 283 282 282 281 280 279 278 278 278 277 276 275 273
298 297 297 296 296 295 295 294 293 292 292 292 291 290 288 288 288 288 287 287 286 287 287 286 285 284 284 284 283 283 283 282 282 281 280 279 279 278 277 277 277 276 274 272
296 295 294 293 294 293 293 293 292 291 290 291 290 288 288 287 288 287 287 286 286 286 286 285 284 283 283 283 283 283 283 283 282 280 280 279 279 277 277 276 276 275 274 273
292 292 291 291 291 291 291 290 290 290 289 289 288 287 289 289 289 287 287 286 285 285 285 284 284 283 283 283 282 282 282 282 281 280 280 279 278 277 276 276 276 275 274 273
292 292 292 291 292 290 289 290 290 288 289 288 287 286 287 290 289 288 287 285 287 286 285 284 283 283 283 282 282 281 281 281 281 280 280 279 278 277 277 276 275 275 274 273
290 291 291 290 289 290 290 289 288 287 288 287 286 285 288 289 289 288 285 286 287 287 286 285 284 283 283 282 282 281 281 281 281 280 280 279 278 278 277 276 276 275 274 273
291 290 290 290 288 288 290 289 288 287 288 287 287 287 288 288 289 288 287 286 287 287 286 285 284 283 283 282 281 281 281 281 281 281 280 279 278 277 277 277 276 275 274 274
289 290 289 289 288 288 289 289 289 288 288 287 286 287 287 288 289 287 287 288 288 287 285 284 283 283 283 283 282 281 281 281 281 281 281 279 278 278 278 277 276 276 275 274
290 290 289 290 289 288 287 289 289 288 287 287 288 288 288 288 288 288 288 288 287 286 285 284 284 283 283 283 283 282 282 281 281 281 281 280 279 278 278 277 277 276 276 275
290 289 289 288 287 288 287 288 287 288 288 288 289 289 289 289 287 287 288 288 288 286 285 285 284 283 283 282 282 281 281 282 282 281 281 281 280 279 279 278 278 277 276 275
289 288 288 287 285 285 286 287 287 288 288 288 288 290 290 288 288 288 288 287 287 285 285 285 284 283 283 282 282 282 281 281 281 281 281 281 280 280 280 279 279 278 277 276
288 288 288 287 287 287 287 287 288 288 288 287 288 289 289 288 288 288 288 287 286 285 285 284 284 284 283 282 281 281 281 280 280 280 279 280 280 280 280 280 279 279 278 277

GFSNGP_925_thetae_006.txt.gz
Theta_e
316 316 315 316 316 315 316 318 320 318 317 316 315 314 314 314 314 314 313 312 311 310 306 305 304 304 303 302 300 300 299 298 296 295 294 294 293 292 291 290 289 288 288 288
317 315 315 316 316 315 316 317 317 317 317 314 313 314 314 314 313 313 312 309 307 303 303 302 302 304 302 300 299 299 298 296 294 294 293 292 291 290 289 288 288 287 287 287
323 315 316 320 317 315 315 316 315 316 315 314 315 314 314 313 312 311 308 306 303 302 302 302 303 303 300 299 298 298 296 295 294 294 292 290 289 288 288 288 287 287 287 287
322 319 323 316 314 314 314 314 314 314 314 314 315 314 313 310 309 305 304 303 302 302 301 302 303 301 299 298 297 296 295 294 294 292 290 289 288 288 287 287 287 286 286 285
319 317 316 315 314 314 314 314 313 315 315 315 314 312 312 305 303 305 303 302 301 301 301 301 303 300 299 297 296 295 295 294 293 291 290 288 288 287 287 287 286 286 285 285
317 319 320 316 312 311 313 317 314 314 314 313 313 315 311 306 303 302 302 301 300 299 300 302 302 299 299 298 297 295 294 294 292 290 289 288 287 287 287 286 286 285 285 284
317 318 317 314 311 311 318 319 314 311 310 311 310 308 306 303 302 301 300 300 298 297 298 299 300 299 299 297 294 293 293 292 291 290 288 287 287 287 287 286 286 285 284 283
315 315 318 311 312 316 316 312 310 310 310 309 307 305 303 301 300 299 299 298 297 297 297 297 298 298 298 295 293 293 293 292 291 289 288 287 288 287 287 286 285 284 283 283
315 318 314 313 312 312 310 310 311 309 307 306 304 302 300 299 299 299 298 297 296 296 296 296 296 297 296 294 294 293 292 291 290 289 288 288 288 287 286 285 284 283 283 282
315 315 314 314 313 312 310 308 306 305 304 302 301 299 299 299 298 298 296 295 295 294 294 295 295 297 295 294 293 292 291 290 290 289 288 288 287 286 285 284 283 282 281 281
315 315 314 313 312 310 308 305 304 303 301 300 298 298 298 297 296 295 295 295 294 294 293 293 293 295 293 291 290 290 289 289 289 288 288 287 286 285 284 283 280 280 279 279
316 314 314 312 308 308 307 305 302 300 299 298 297 298 296 295 294 294 294 294 294 293 293 292 292 292 291 288 288 288 288 288 288 288 288 287 285 285 283 281 278 277 277 276
314 309 309 307 305 305 303 301 299 298 298 299 297 295 294 294 294 294 294 294 294 293 292 292 291 290 289 287 286 286 287 287 288 287 286 285 285 284 283 282 280 278 277 276
308 306 306 305 305 301 299 298 298 298 297 296 295 295 294 294 294 294 294 294 294 293 292 290 289 289 288 287 286 286 286 286 286 286 286 285 284 283 282 281 281 280 278 276
305 306 305 302 300 299 299 298 298 297 296 296 295 295 295 294 294 293 293 292 292 291 290 289 289 288 287 286 285 285 285 286 285 285 284 283 282 282 282 281 280 279 278 277
302 302 301 300 299 298 297 296 295 296 295 294 294 293 293 293 292 291 290 290 289 289 288 287 286 286 285 285 285 285 284 284 283 284 284 283 282 282 281 280 280 279 278 276
301 300 299 297 295 295 295 294 294 294 293 293 293 292 291 290 289 290 290 289 288 286 286 286 286 286 284 285 285 285 284 284 283 284 283 282 282 281 281 280 279 279 278 275
298 296 294 294 295 295 295 294 293 293 293 292 290 289 288 289 290 290 290 288 287 286 286 286 285 284 284 284 283 283 284 284 283 283 282 282 281 281 280 280 279 279 278 276
294 294 294 294 294 294 293 293 292 291 290 290 289 289 288 288 288 290 290 288 287 287 288 286 284 283 284 283 283 283 283 283 283 283 282 281 281 281 280 280 279 279 278 277
293 293 294 294 293 292 291 291 290 290 290 290 289 288 288 288 289 289 289 289 288 289 288 285 284 284 283 283 282 283 282 283 283 283 282 281 281 281 280 280 279 279 278 277
293 293 293 292 291 291 290 290 289 289 289 288 287 288 288 288 289 289 289 290 290 288 287 286 285 285 284 283 283 283 283 283 283 283 282 282 281 281 281 280 280 279 278 277
293 293 292 291 290 290 290 290 290 289 288 288 287 287 287 289 290 289 290 289 289 288 287 287 286 285 284 283 283 283 283 283 283 283 283 282 281 281 281 280 280 279 278 277
292 292 291 291 290 291 290 289 289 289 288 288 288 288 288 288 288 289 291 290 288 287 287 287 286 284 283 283 283 283 283 283 283 283 283 282 281 281 280 280 280 279 278 278
292 292 291 291 289 289 290 291 290 289 288 288 288 288 288 289 289 289 289 287 288 287 287 286 284 284 283 283 283 283 283 283 283 283 283 282 281 281 280 280 280 279 279 278
291 291 290 289 290 292 291 289 288 289 289 289 289 288 289 289 289 288 287 288 288 287 287 286 284 284 283 283 283 283 283 282 282 282 282 282 282 282 281 280 280 279 279 278
292 292 292 291 291 290 290 289 288 288 289 289 288 288 288 289 289 288 287 288 287 287 286 286 285 284 284 283 283 282 282 282 281 281 281 281 281 281 281 281 280 280 279 278
292 291 290 291 292 291 290 289 288 288 288 288 288 287 288 288 288 287 287 287 287 286 285 285 285 284 284 283 282 282 281 281 280 280 280 280 280 280 280 280 280 280 280 278

GFSNGP_925_thetae_009.txt.gz
Theta_e
318 316 315 315 316 316 316 316 319 319 318 317 317 316 316 315 315 314 313 313 311 310 308 305 304 304 303 304 303 301 301 299 298 297 296 295 294 293 292 291 290 289 289 289
318 316 315 316 315 315 316 316 317 317 317 316 316 315 315 314 314 314 313 311 309 307 304 304 303 303 303 303 301 300 300 298 297 296 295 294 293 291 290 289 289 289 289 288
323 320 318 323 319 315 316 316 317 318 317 315 316 316 314 313 314 312 310 308 308 305 304 303 302 302 303 302 301 300 299 298 297 296 295 293 292 290 289 289 289 288 288 288
323 320 327 319 316 315 315 315 315 315 315 316 315 314 313 312 311 309 307 307 305 304 303 301 300 301 302 302 300 300 298 297 296 295 294 292 291 290 289 289 289 288 288 287
321 320 318 317 316 315 315 316 315 317 317 316 315 313 312 310 308 307 306 304 303 302 300 299 299 300 301 300 300 299 299 296 295 294 294 292 290 289 289 289 288 288 287 287
321 320 322 319 316 314 315 318 317 316 316 314 313 315 312 308 306 305 303 302 301 300 299 299 298 298 298 298 298 298 297 295 294 293 293 291 290 289 289 288 288 288 287 286
319 321 318 315 314 314 318 321 317 314 313 312 312 310 308 306 304 302 301 300 300 299 298 297 297 296 297 297 297 297 295 294 294 294 292 290 289 289 289 288 288 287 286 285
318 320 319 314 313 318 317 315 314 312 311 310 308 307 305 303 301 300 300 299 298 297 297 296 295 295 295 295 296 296 295 295 294 293 291 290 289 289 289 288 287 286 285 284
319 319 315 315 316 315 314 314 312 310 308 308 305 304 302 301 300 299 298 297 296 296 295 295 294 294 294 295 296 295 294 293 293 292 290 289 289 288 288 287 287 285 284 284
317 315 314 315 315 314 312 311 308 306 308 304 303 301 300 300 299 298 296 296 295 295 295 294 294 294 293 294 294 293 292 292 291 290 289 289 289 288 287 286 285 284 282 282
319 316 314 314 313 312 310 309 308 306 304 303 301 300 300 299 297 296 295 295 295 295 294 294 294 293 293 293 291 291 290 290 289 289 289 289 288 287 286 285 283 281 280 279
320 316 315 315 312 310 310 308 306 303 302 300 300 300 298 297 296 295 295 294 295 294 294 294 294 292 291 291 290 289 289 289 289 289 289 288 287 286 285 284 282 280 278 277
316 314 313 310 308 308 307 304 302 301 300 300 298 297 296 296 295 295 295 294 294 294 294 294 292 291 290 290 289 288 288 288 288 288 288 287 286 285 285 284 282 281 279 277
312 310 307 307 308 304 303 301 300 299 298 297 296 296 295 295 294 294 294 294 294 294 293 292 291 291 290 289 288 287 287 287 287 287 287 286 285 284 284 283 283 283 281 278
307 307 307 306 304 302 301 299 298 297 296 296 294 294 294 294 294 294 294 294 293 291 292 291 291 290 289 288 287 287 286 285 285 285 285 284 284 284 284 283 283 282 281 280
306 306 304 303 301 299 297 297 297 296 295 294 294 294 294 293 293 293 293 293 291 290 290 288 287 288 288 287 287 287 287 285 284 285 285 284 284 284 283 283 282 282 281 280
306 304 302 300 297 297 296 296 295 294 294 294 293 293 292 291 290 292 291 291 291 289 288 287 287 288 287 286 286 286 286 285 284 284 285 284 283 283 283 282 282 281 281 279
302 300 296 296 296 296 296 295 294 294 294 293 292 290 290 290 290 290 289 289 290 289 288 287 287 287 286 286 285 284 284 285 284 284 284 284 283 282 282 282 282 281 281 280
296 295 295 295 295 295 295 294 294 293 292 292 291 291 290 290 289 290 289 289 290 290 290 289 287 285 285 284 283 283 284 284 284 285 284 283 283 283 283 282 282 281 280 280
295 295 294 294 294 294 294 293 292 292 292 292 291 290 290 290 289 289 289 290 290 290 290 289 287 285 285 284 283 284 284 284 284 284 284 283 283 283 282 282 282 281 281 280
293 293 294 294 294 293 292 292 291 291 292 291 290 289 289 288 288 288 290 291 291 291 290 288 287 287 287 285 284 284 284 284 284 284 284 284 283 283 283 282 282 282 281 280
294 294 293 293 293 293 293 292 292 292 291 290 289 288 288 289 289 289 290 290 290 291 289 288 288 287 287 285 284 285 284 284 284 284 284 284 284 283 282 282 282 282 281 280
293 292 293 293 292 293 293 291 291 291 290 290 289 288 289 289 289 289 290 291 290 289 289 289 288 287 286 283 283 284 283 284 284 284 284 284 283 283 282 282 281 281 280 280
293 293 293 293 293 292 292 293 293 291 290 289 289 289 289 289 289 290 289 290 288 288 288 288 288 287 284 283 284 284 284 283 283 283 284 283 283 283 282 281 281 281 281 280
293 293 293 293 293 294 293 293 293 292 291 291 290 290 289 288 288 287 289 288 287 287 287 287 287 286 284 284 284 284 283 283 283 283 283 283 283 283 283 282 281 281 280 280
293 293 293 293 294 293 293 293 293 292 290 290 290 289 289 288 288 287 288 288 287 288 287 287 287 285 284 284 284 284 283 283 282 282 282 282 282 282 282 282 281 281 281 280
293 293 293 294 294 293 293 293 291 290 289 288 289 289 289 288 288 287 288 288 287 287 287 287 287 286 285 285 285 284 283 282 282 281 281 281 281 281 281 281 280 280 280 280

GFSNGP_925_thetae_012.txt.gz
Theta_e
318 316 316 316 316 316 316 317 319 319 317 317 317 317 316 315 315 314 314 313 311 310 308 306 305 304 304 303 304 304 302 301 300 299 297 297 296 294 293 291 290 290 289 289
320 317 316 316 315 315 316 316 316 317 317 317 317 316 315 314 314 314 312 310 308 308 306 305 304 304 303 302 303 303 301 301 300 299 297 296 295 294 292 291 290 289 289 289
325 319 320 326 321 316 316 316 316 319 317 317 317 316 315 314 313 311 309 308 307 306 305 304 302 300 300 301 302 302 302 301 300 297 296 296 295 293 291 290 289 289 289 289
323 321 327 319 316 316 316 316 315 315 317 317 315 314 313 311 310 308 307 306 305 304 302 301 300 300 299 298 298 298 300 299 299 297 296 295 294 292 291 290 289 289 289 288
325 320 318 318 317 316 316 316 315 318 317 315 313 312 312 309 307 306 306 305 302 301 301 300 299 298 297 297 297 297 297 298 298 296 295 294 293 291 290 289 289 289 289 288
319 321 320 319 316 315 315 319 318 317 316 314 312 314 312 308 306 304 302 301 301 300 299 298 297 296 296 295 295 295 296 296 295 294 294 294 292 290 289 289 289 288 288 287
320 318 319 315 315 314 318 321 317 316 314 313 312 311 308 306 304 301 301 300 299 298 297 297 296 295 295 295 294 295 296 295 295 294 292 292 291 290 290 289 288 288 286 285
318 320 320 315 314 317 319 317 315 313 312 311 309 308 305 303 301 300 300 298 297 296 296 295 295 295 295 294 294 295 294 294 294 294 293 292 290 290 289 288 288 286 285 285
320 320 318 316 315 315 315 315 313 312 310 308 308 305 303 301 301 300 298 297 296 296 295 295 295 295 295 294 294 293 292 292 292 292 291 290 290 289 288 287 286 285 284 283
321 317 315 316 315 315 314 312 310 309 308 308 304 303 301 301 300 298 297 296 296 295 295 295 295 295 294 293 293 292 291 291 291 290 290 289 289 288 287 287 286 284 283 281
319 317 317 316 315 313 311 310 309 308 305 303 302 301 300 299 298 297 296 296 295 295 295 295 294 294 293 291 291 291 290 289 289 290 289 289 288 287 286 285 284 282 281 280
321 318 318 316 312 310 310 309 308 304 303 301 300 299 298 298 297 296 295 295 295 294 294 294 294 293 292 291 290 289 289 288 289 288 288 288 288 287 286 285 284 283 281 279
316 315 315 312 309 309 309 306 303 302 301 299 298 297 296 295 295 294 294 294 294 294 294 294 293 292 292 290 289 289 288 287 287 288 288 288 287 286 285 284 284 283 282 280
313 312 311 309 309 306 304 303 301 300 298 297 296 295 294 295 294 294 294 294 294 294 293 292 292 292 291 290 289 288 287 287 287 287 287 286 285 284 284 284 284 284 282 281
311 309 309 308 306 305 302 300 298 297 297 296 294 294 294 294 293 293 293 293 293 293 293 291 290 289 289 289 288 288 288 287 285 285 285 285 284 284 284 284 283 283 282 282
308 308 307 307 304 301 299 298 297 297 295 294 294 294 294 293 292 292 292 292 290 290 290 290 289 288 287 288 287 287 287 286 285 284 284 285 285 284 283 284 283 283 282 281
309 307 305 302 300 298 297 297 296 295 294 294 294 293 292 291 290 291 291 290 289 289 289 290 289 287 288 288 287 287 287 286 285 284 284 285 284 283 284 283 283 282 282 281
306 304 300 298 297 297 298 297 295 295 294 294 292 292 291 291 290 290 290 290 290 289 289 290 289 287 287 286 286 286 284 284 284 285 285 284 284 283 282 283 283 283 282 281
300 297 296 296 296 296 296 296 295 294 293 292 293 292 291 290 290 290 289 288 289 289 290 290 290 288 287 286 285 284 284 284 284 284 284 285 284 283 283 283 283 282 281 281
296 296 295 295 294 293 294 293 293 293 292 293 292 291 290 290 289 288 288 288 288 289 291 290 290 289 286 285 285 284 284 284 284 284 284 284 284 284 284 283 283 283 282 281
294 294 294 294 294 293 293 292 292 292 292 292 291 290 290 289 288 288 289 288 289 290 291 290 290 288 287 287 286 285 284 284 284 284 284 285 285 284 284 283 282 283 283 282
295 294 293 293 293 293 293 293 293 293 293 291 291 290 289 289 289 289 288 289 290 290 289 288 289 288 287 287 286 285 285 284 283 284 284 284 284 284 284 282 282 282 282 282
294 294 293 293 293 293 294 294 293 292 291 290 290 290 289 289 289 289 289 289 289 290 288 287 289 289 288 287 286 284 284 284 283 283 283 283 283 283 283 282 282 281 281 281
294 294 293 293 293 293 293 293 293 294 293 292 291 291 290 290 290 289 288 288 287 289 288 287 288 288 288 287 286 284 284 284 284 284 284 284 284 284 283 283 282 281 281 280
293 293 293 293 293 293 294 294 294 294 293 293 291 290 290 290 289 288 287 287 287 288 287 287 287 288 287 287 285 284 284 284 284 283 283 283 283 283 283 283 283 282 281 281
294 294 294 294 293 294 294 294 294 294 293 292 290 289 289 288 289 289 288 288 287 288 288 287 287 287 287 287 286 284 285 285 284 283 283 282 282 281 281 282 282 281 281 281
294 294 294 295 295 294 294 293 293 293 291 289 289 288 288 287 287 288 288 288 287 287 287 288 287 287 287 287 286 285 285 285 284 283 283 282 281 281 281 281 281 280 280 280

GFSNGP_925_thetae_015.txt.gz
Theta_e
317 316 315 315 315 314 314 314 314 314 318 317 314 314 313 313 312 311 309 308 306 305 304 304 304 303 300 300 300 302 302 302 302 301 299 298 297 295 293 293 291 289 289 289
317 317 316 316 316 315 314 315 315 315 316 315 313 312 312 312 311 309 308 306 305 305 304 304 302 300 300 298 297 297 296 297 301 299 298 297 296 295 295 291 290 289 289 289
317 315 316 313 317 316 316 315 315 314 316 314 313 312 310 309 308 307 306 305 304 304 304 301 300 298 296 296 296 295 294 297 298 298 297 297 296 295 293 290 289 289 289 288
309 307 309 318 315 314 315 314 313 316 315 313 311 309 308 306 305 305 305 304 303 304 300 299 297 296 295 295 295 294 296 296 296 296 296 295 294 293 290 290 289 289 288 288
312 312 312 317 316 315 315 314 316 316 314 312 311 310 307 305 305 304 303 303 300 299 298 297 296 295 295 295 294 294 296 295 295 295 294 294 294 292 291 290 289 289 288 287
306 307 306 313 315 314 314 312 316 314 313 311 310 306 308 304 304 303 300 300 298 296 296 295 295 295 295 295 294 295 295 294 294 294 294 293 293 291 290 289 288 288 287 285
314 303 309 314 314 313 314 311 315 312 311 311 309 306 306 304 301 300 300 298 296 296 295 295 295 295 295 294 294 294 293 293 293 293 293 293 292 290 289 288 287 286 285 284
314 312 311 313 313 311 311 314 312 310 310 309 308 307 307 301 299 299 297 296 295 295 295 294 295 295 294 294 293 293 292 291 291 291 291 291 290 289 288 287 286 285 284 283
311 310 310 313 312 312 312 312 311 310 309 308 306 307 301 300 299 297 296 296 295 295 294 295 294 294 293 292 292 292 291 290 290 289 289 289 288 288 287 286 285 284 283 282
313 315 315 313 313 313 311 310 309 309 309 308 307 301 300 298 296 295 296 295 294 294 294 294 294 294 293 292 291 291 290 289 289 289 289 289 288 287 286 285 285 283 282 281
311 315 314 314 311 309 309 308 309 307 308 303 301 299 297 295 295 295 294 294 294 294 294 294 294 293 293 292 291 290 289 288 288 288 287 288 287 286 285 285 284 283 282 281
310 313 313 312 310 310 311 309 308 307 302 301 298 296 295 294 294 294 294 294 293 294 293 293 293 292 292 292 291 290 288 288 287 287 287 287 286 285 285 284 284 284 283 281
312 314 312 310 308 309 308 308 305 301 301 296 295 294 294 294 294 293 293 293 293 293 293 293 293 291 291 291 290 289 288 288 287 287 287 286 285 284 284 283 284 283 283 281
311 309 308 308 308 307 305 303 301 299 296 295 294 294 294 293 293 293 292 292 292 292 291 290 291 290 290 289 289 288 288 287 287 286 285 285 284 284 284 284 284 283 283 282
309 308 308 306 306 305 303 299 296 295 294 294 294 294 293 293 292 292 292 291 292 291 289 289 289 290 289 288 288 288 287 287 287 285 284 284 284 284 283 283 283 282 283 281
307 307 307 307 306 300 296 295 295 294 294 293 293 293 294 293 291 291 290 291 290 289 289 289 288 289 289 287 288 287 287 287 285 285 284 284 284 284 283 283 283 282 282 282
308 307 307 302 297 296 295 295 295 294 294 294 293 293 292 291 291 290 290 289 289 288 288 288 289 289 289 287 287 287 286 285 284 284 284 284 284 283 283 282 282 282 282 282
304 300 298 296 295 295 295 295 294 294 293 293 292 292 292 291 290 290 289 288 287 287 288 288 289 289 290 288 287 286 286 284 283 283 283 283 284 284 283 282 283 283 283 281
297 297 296 296 295 294 294 293 294 294 293 292 292 292 292 291 290 289 288 287 287 288 288 289 290 290 289 289 287 286 285 284 284 283 283 283 284 284 283 283 283 282 282 282
295 294 294 293 292 292 292 292 292 292 292 292 292 291 291 289 289 288 287 288 288 288 288 289 289 289 289 289 286 285 285 283 283 283 283 283 284 284 284 283 282 282 282 283
293 294 294 293 293 293 293 292 292 292 292 293 292 291 290 290 289 289 288 288 288 288 289 288 289 287 287 288 287 286 285 284 283 284 284 284 284 284 284 284 283 282 282 282
294 293 293 293 292 292 292 293 293 293 293 292 291 290 290 289 289 289 289 289 288 288 288 287 288 287 288 288 287 287 287 285 284 284 283 283 284 284 284 283 282 282 281 281
294 294 293 293 293 293 293 293 293 292 292 292 291 290 290 290 290 288 288 289 288 287 287 287 288 287 288 288 288 286 286 285 285 284 283 283 283 283 283 283 283 282 281 281
294 293 293 293 292 292 292 293 293 293 293 293 293 292 291 290 289 289 290 289 288 287 287 287 288 287 287 288 288 288 287 286 284 284 284 284 283 283 283 283 283 283 282 281
292 292 293 293 292 292 293 293 293 294 294 293 293 291 290 288 288 288 287 287 287 287 287 287 287 287 287 286 286 287 286 286 284 284 284 284 283 283 283 282 282 283 283 282
293 293 293 293 293 293 294 294 293 294 293 293 291 290 289 288 287 286 287 287 287 287 287 287 286 287 287 287 286 286 286 285 285 284 284 284 283 282 282 281 281 281 281 282
294 294 294 294 293 293 293 294 292 291 291 291 289 289 288 287 286 287 287 287 287 286 287 287 287 286 287 287 287 286 286 286 285 285 285 284 283 283 282 281 281 281 281 280

GFSNGP_925_thetae_018.txt.gz
Theta_e
315 314 314 314 314 313 313 313 314 313 315 315 314 312 311 310 308 307 306 305 305 304 303 303 302 300 297 296 296 295 294 296 297 297 296 297 297 296 296 295 294 292 289 289
315 315 316 315 315 315 313 313 314 314 317 313 311 310 310 309 307 307 306 305 304 303 303 303 299 296 295 295 295 294 294 296 296 295 295 296 296 296 296 294 290 289 289 289
311 312 313 310 315 315 315 313 313 313 314 312 311 311 308 307 306 306 305 304 303 302 301 298 296 295 295 295 294 294 295 295 295 294 294 295 295 295 294 292 290 289 289 288
305 302 305 315 313 313 313 315 314 313 312 311 310 308 305 304 304 304 303 302 301 299 297 296 295 295 294 294 294 294 295 294 294 293 293 294 294 294 291 290 291 288 288 287
303 309 306 314 314 314 312 313 314 314 312 311 308 306 306 304 303 303 302 300 298 296 296 295 294 294 294 294 293 294 294 294 293 293 293 293 292 292 292 291 288 288 287 285
308 303 302 306 313 312 311 312 314 312 311 310 307 305 306 303 303 302 299 297 295 295 295 294 294 294 294 293 294 293 293 293 292 292 293 293 292 291 290 288 288 287 285 283
297 300 306 307 312 311 312 309 313 311 309 308 307 304 304 305 300 299 297 295 295 295 294 294 294 294 294 293 293 293 292 292 291 290 290 290 291 290 288 288 286 285 284 282
306 301 309 309 312 311 308 311 311 309 308 308 307 307 307 302 299 296 295 295 294 294 294 294 294 294 293 293 292 292 291 290 290 289 289 289 288 287 287 286 285 284 283 281
310 310 308 309 310 309 310 311 308 307 307 307 306 306 304 298 295 295 294 294 294 293 293 294 293 293 293 293 292 291 290 290 289 289 288 288 287 287 286 285 284 283 282 281
311 312 311 311 312 311 310 309 307 307 307 307 307 303 297 294 294 293 293 293 293 293 293 293 293 293 292 292 291 291 290 289 288 287 287 287 286 285 285 284 284 283 283 282
309 311 313 313 312 308 307 307 307 308 307 306 299 295 294 293 293 293 293 293 293 293 293 292 293 293 292 291 291 290 290 288 287 287 287 287 285 285 284 283 283 283 283 282
311 309 310 311 308 307 308 308 308 307 301 296 295 294 293 292 293 293 292 292 292 292 292 292 292 290 291 291 290 289 289 288 287 286 287 286 285 284 284 283 283 283 283 282
312 311 311 309 307 308 309 308 308 301 296 294 293 293 293 293 293 292 291 291 292 291 291 291 289 289 290 290 289 289 289 288 287 286 286 286 284 284 283 283 283 282 283 282
310 308 308 307 307 308 309 304 297 295 294 293 293 293 293 293 292 292 291 291 290 290 291 289 289 289 289 289 289 288 288 288 287 287 286 284 284 284 283 283 283 282 282 282
308 308 307 306 305 304 301 296 295 293 293 293 293 293 293 292 292 291 291 290 290 290 289 288 287 288 288 288 288 287 287 287 287 286 285 284 284 284 283 282 283 283 282 282
306 306 307 307 306 298 296 295 294 293 293 292 292 292 292 293 292 291 290 290 289 287 287 287 287 288 288 288 288 287 287 286 286 285 284 284 283 284 284 283 282 282 282 282
308 308 307 300 297 296 295 294 294 293 293 293 292 292 292 291 291 291 290 289 288 287 287 287 287 288 289 289 289 288 287 286 285 285 284 284 284 283 283 283 282 282 282 282
304 303 298 297 296 295 294 293 293 293 292 293 293 292 291 291 289 290 289 288 288 287 287 287 287 288 289 289 288 288 286 285 285 284 283 283 283 283 284 283 282 282 282 282
297 296 295 294 293 292 291 291 291 292 293 293 292 291 291 291 290 289 288 288 287 287 287 288 288 288 288 288 288 288 287 286 285 283 283 283 283 283 284 284 283 283 282 282
294 295 293 292 292 292 292 291 292 291 291 291 291 291 290 291 290 289 289 288 288 288 288 288 288 286 287 288 287 287 287 285 285 283 283 283 283 283 284 284 283 283 282 282
293 293 292 292 292 292 292 292 292 292 292 292 292 291 290 291 290 290 289 286 289 288 288 287 287 286 286 287 287 287 287 285 285 284 283 283 283 283 284 284 283 283 282 281
292 292 293 292 292 292 292 292 292 292 293 292 291 290 289 289 290 290 289 288 289 289 288 288 287 286 286 288 287 287 287 286 286 286 285 284 283 283 283 283 283 283 282 281
293 293 293 292 292 291 292 292 292 292 292 292 292 292 291 291 291 288 287 288 289 289 288 288 287 287 286 287 287 287 288 287 286 286 285 285 284 283 282 282 282 283 283 282
293 292 291 292 292 292 291 292 292 293 293 293 293 293 292 290 290 288 287 287 286 287 287 287 286 286 286 286 286 286 286 287 287 286 286 286 284 284 284 283 283 283 283 283
292 292 292 292 292 292 292 293 292 292 292 292 292 292 291 290 288 288 287 286 286 286 286 286 286 287 286 286 286 286 286 286 286 285 285 285 285 284 284 283 283 283 282 282
292 292 293 293 293 293 293 292 292 292 290 290 290 291 290 289 288 288 286 286 286 286 285 285 285 285 286 286 285 286 286 286 286 285 285 284 284 284 284 284 282 282 281 281
293 293 293 293 293 292 292 292 291 290 290 289 289 289 289 289 288 287 287 285 285 284 284 284 284 284 284 285 286 286 285 285 286 286 285 284 284 284 284 284 283 281 281 281

GFSNGP_925_thetae_021.txt.gz
Theta_e
313 313 313 313 313 312 314 313 313 312 312 312 312 310 309 308 306 306 305 305 304 303 303 302 300 297 296 295 295 294 294 294 295 295 294 293 293 293 296 295 295 293 292 289
316 313 314 314 311 311 310 311 313 311 315 312 310 309 309 308 306 305 305 305 304 302 301 299 296 295 295 295 294 294 294 294 295 294 293 292 292 294 294 295 293 290 290 289
306 309 311 305 311 314 313 312 312 312 312 310 311 310 308 306 305 305 304 303 302 301 299 296 295 295 294 294 294 294 294 295 294 293 292 292 292 294 293 293 291 289 288 287
303 302 303 308 311 312 312 313 314 313 311 310 310 308 306 304 304 303 302 302 300 297 296 295 294 294 294 294 294 293 295 294 293 293 292 292 293 292 291 290 290 289 287 287
303 305 305 310 313 312 313 311 312 312 310 309 307 305 305 303 302 301 301 300 297 295 295 294 294 294 294 294 293 294 293 293 292 292 292 292 292 292 291 291 290 287 286 284
305 300 300 304 312 310 310 311 311 310 309 308 305 306 306 302 302 301 299 296 294 294 294 294 294 293 293 293 293 293 293 292 291 291 290 290 290 291 290 289 287 286 284 283
294 299 305 305 311 310 312 307 311 310 309 307 307 305 303 302 301 299 295 295 294 294 294 293 293 293 293 293 293 293 292 291 290 289 289 289 289 289 288 287 286 285 284 282
304 302 308 307 310 311 309 307 311 309 308 308 306 305 305 301 296 294 294 293 293 293 293 293 293 293 293 293 293 292 291 291 289 289 288 287 287 287 287 286 285 284 282 281
308 309 306 306 309 308 307 309 309 308 306 306 307 305 305 297 294 293 293 293 293 293 293 293 293 293 293 292 292 291 291 290 289 288 287 287 287 286 285 285 284 283 282 282
309 309 308 307 308 310 308 309 306 306 306 305 305 305 298 293 292 292 292 292 292 292 292 292 292 292 292 292 291 291 290 289 288 287 287 287 286 285 285 284 283 283 282 282
308 309 310 311 309 309 308 306 307 307 306 306 305 296 294 292 292 292 292 292 291 291 291 291 291 291 289 289 290 290 290 289 288 287 286 286 285 285 284 284 283 283 283 282
310 308 310 309 309 307 307 306 307 307 302 298 295 293 292 291 292 292 292 291 291 291 290 290 291 289 289 289 290 289 289 289 288 287 286 286 286 285 284 283 283 283 283 282
309 308 308 309 306 306 307 307 306 299 296 294 293 292 292 292 292 292 291 290 290 290 290 290 289 288 288 288 289 288 288 288 288 287 286 286 285 284 283 283 283 282 282 282
309 307 309 307 307 307 307 302 296 294 293 293 293 293 292 292 292 291 291 290 290 290 289 288 287 287 287 288 288 288 288 287 287 287 286 286 285 284 283 283 283 282 282 282
308 307 308 306 306 303 296 295 294 294 293 292 292 292 292 291 291 291 291 290 289 289 288 287 286 286 287 288 288 288 288 287 287 286 286 285 284 284 283 283 282 282 282 282
306 306 305 304 298 297 296 296 295 293 292 292 291 291 291 292 291 291 290 290 289 288 287 286 286 287 287 288 288 289 288 287 286 286 285 284 284 283 283 284 283 282 282 282
306 306 300 299 298 298 297 296 294 293 292 292 291 291 291 291 291 291 291 290 288 287 287 287 287 287 287 287 288 288 287 288 286 285 284 284 284 284 283 283 283 282 282 282
301 299 298 297 295 294 293 293 293 292 292 292 292 292 291 291 290 290 290 288 288 288 287 288 287 287 287 287 287 287 287 287 286 285 284 284 283 282 283 283 283 282 282 282
295 295 294 293 293 292 291 290 290 291 291 291 291 291 291 291 290 290 290 289 288 287 289 288 288 287 286 286 286 287 286 285 285 285 285 283 283 283 282 283 283 283 283 282
295 294 293 292 291 291 291 291 292 291 291 291 291 290 289 290 290 290 290 288 289 289 288 288 287 287 286 286 286 286 286 286 285 286 285 283 283 283 283 283 283 283 283 283
293 292 291 291 291 292 292 292 292 291 292 292 291 289 288 290 290 289 288 286 290 288 288 288 288 288 287 286 286 286 286 286 286 285 285 284 284 283 283 283 283 283 283 283
291 292 292 292 291 291 291 291 291 292 292 292 291 290 288 289 290 290 289 288 289 287 287 287 287 287 287 287 286 286 286 286 286 286 286 285 285 284 284 283 283 283 283 283
292 292 291 291 291 291 292 292 292 292 292 292 291 291 290 290 290 287 287 290 287 286 286 286 286 286 286 287 286 285 285 286 286 286 286 286 286 285 285 284 283 282 282 282
291 291 291 291 292 292 291 291 292 292 292 292 292 291 290 290 289 291 289 288 287 286 286 286 285 285 285 285 286 286 286 285 285 285 285 285 285 284 284 284 284 284 283 282
292 292 292 292 291 292 292 292 291 292 292 292 291 290 290 290 288 290 289 287 286 286 286 285 284 283 283 284 284 285 285 285 285 285 285 285 284 284 283 283 283 284 283 283
291 291 291 290 290 290 289 289 288 289 288 288 289 288 287 288 289 289 288 288 286 285 284 283 283 282 282 282 282 282 283 284 285 285 285 285 285 284 284 283 283 283 284 283
289 288 287 287 286 286 286 285 286 287 288 287 286 286 287 287 287 287 287 287 285 284 282 282 280 279 278 278 278 278 279 280 281 284 285 285 285 285 284 284 283 283 283 282

GFSNGP_925_thetae_024.txt.gz
Theta_e
313 312 312 312 311 313 313 311 312 311 310 309 311 310 308 307 305 304 304 303 301 301 301 301 300 297 296 295 295 294 294 294 294 295 293 293 292 291 292 294 294 294 290 289
315 312 311 313 309 309 310 310 311 311 310 308 310 307 307 307 305 305 304 302 302 302 301 300 297 295 295 294 294 294 293 294 295 294 293 292 292 292 292 293 292 292 290 288
306 307 306 306 309 310 311 309 309 311 310 309 310 309 307 306 305 304 303 301 301 301 300 297 295 295 294 294 294 293 293 294 294 293 292 292 292 292 292 291 291 289 289 287
302 301 303 308 308 310 311 311 308 311 310 309 309 307 306 304 304 303 301 301 301 300 296 296 295 294 293 293 293 293 293 294 293 292 292 291 290 291 292 290 290 290 287 286
302 304 305 307 308 311 312 311 310 310 310 308 306 306 307 304 302 302 301 301 299 296 295 295 294 293 293 293 293 293 293 293 292 291 291 290 289 289 291 290 289 287 286 284
300 301 301 305 308 309 310 311 309 309 308 307 306 308 310 303 301 300 301 299 296 294 294 293 293 293 293 293 293 293 292 292 291 290 290 289 288 288 289 290 287 286 285 284
294 298 304 304 310 309 312 309 308 308 307 305 307 308 305 301 301 301 297 294 294 293 293 293 293 293 293 292 292 292 292 292 291 290 289 288 288 287 287 287 286 285 284 283
302 299 309 305 310 311 309 306 308 307 306 307 305 303 303 301 297 294 293 293 293 293 292 292 293 292 292 292 292 292 291 291 290 290 289 288 287 287 287 286 285 284 283 282
307 308 305 304 308 307 306 307 308 307 306 307 304 304 303 297 294 293 292 292 292 292 292 292 292 291 292 292 291 291 291 290 290 289 288 287 287 286 285 285 284 284 283 282
308 308 306 305 305 306 307 307 308 306 306 306 306 304 298 296 293 291 291 292 292 291 291 291 290 291 291 290 289 289 290 289 289 288 288 286 286 285 285 284 284 283 283 282
306 307 307 307 307 306 307 307 306 306 305 305 303 300 297 293 291 291 291 292 291 290 290 290 290 290 289 289 288 289 289 288 289 288 288 286 285 285 285 285 284 283 283 282
308 307 308 307 308 308 308 307 306 306 303 298 299 294 294 292 291 291 291 291 290 290 290 289 290 289 288 288 288 288 288 288 287 287 287 286 285 285 285 284 283 283 283 282
308 307 305 306 307 307 307 305 304 300 296 295 294 294 293 291 291 292 291 290 290 290 289 289 289 288 287 286 287 287 288 288 287 287 287 287 286 285 284 284 283 283 282 282
307 308 310 307 309 306 305 299 295 294 294 294 295 293 292 292 291 291 290 290 290 289 289 288 287 286 286 286 287 287 288 288 287 287 287 286 286 285 285 284 283 283 282 282
308 306 306 305 304 296 295 295 295 296 295 293 292 292 291 291 290 291 290 290 290 289 289 287 286 286 287 287 287 287 288 288 288 287 286 286 286 285 284 284 283 283 282 282
306 305 302 298 296 296 297 297 296 294 292 292 292 291 291 291 291 290 290 290 289 289 287 287 287 287 287 287 287 287 287 288 287 287 286 286 285 284 284 283 283 283 282 281
306 301 298 298 298 296 296 295 293 292 293 292 291 291 291 290 290 290 290 290 289 288 288 288 288 287 287 287 287 287 286 286 287 286 286 285 284 284 284 283 283 283 282 281
296 296 296 295 294 293 293 294 294 292 291 291 291 291 291 289 289 290 290 290 289 288 289 289 288 288 287 286 286 286 286 286 286 285 284 285 284 283 283 282 283 283 283 282
294 294 294 294 294 294 291 290 290 290 291 291 291 290 289 290 289 290 289 289 289 288 290 288 288 288 287 287 286 286 286 286 286 285 284 284 285 284 283 282 282 282 282 283
294 293 292 291 291 291 291 291 291 291 290 290 290 290 290 291 290 289 288 288 289 290 289 288 288 288 288 288 287 286 285 285 286 285 284 284 284 284 283 282 282 282 282 283
291 291 291 291 291 291 291 291 291 291 291 291 291 290 288 288 288 288 287 285 291 290 289 287 286 286 286 286 286 286 286 286 286 285 285 285 284 284 284 283 283 282 282 282
291 291 291 291 290 290 291 291 291 291 291 291 291 290 289 288 289 289 289 288 291 289 288 286 286 286 286 285 285 285 285 285 285 286 285 285 284 284 284 284 284 284 284 283
292 291 290 290 290 290 291 291 291 291 291 291 291 291 291 290 289 286 286 288 288 288 287 286 286 285 283 283 283 284 284 285 285 285 285 285 284 284 283 283 283 283 283 284
290 290 290 290 290 290 289 290 290 290 290 290 291 290 289 289 288 287 288 289 289 288 287 286 286 284 284 283 282 283 283 284 284 284 284 284 284 284 284 284 283 283 283 282
290 290 289 289 288 287 286 286 285 286 286 287 287 288 288 287 285 286 287 287 287 287 287 286 284 283 282 282 281 281 280 280 281 281 283 284 285 285 284 284 284 283 283 282
287 286 285 285 284 284 283 282 283 283 284 284 285 285 285 285 285 286 286 286 286 286 285 283 282 281 280 278 278 277 276 276 276 276 278 280 283 284 284 284 284 284 283 283
284 283 282 282 281 280 278 279 280 280 280 282 283 284 284 284 285 285 286 285 285 284 282 281 280 278 277 277 276 275 274 274 274 275 276 277 278 280 282 284 285 284 284 283

GFSNGP_925_thetae_027.txt.gz
Theta_e
313 313 312 311 313 314 314 314 318 314 313 313 312 316 314 311 310 309 307 306 305 304 303 302 301 299 297 296 295 294 294 294 294 294 294 293 292 291 292 292 293 291 291 289
315 313 312 314 312 311 313 312 313 312 313 311 311 311 311 310 310 309 307 306 304 303 302 302 300 297 296 295 294 294 293 293 294 294 293 292 291 292 291 292 292 291 290 288
313 308 308 312 312 312 311 311 314 315 314 312 313 312 312 311 309 309 307 306 304 303 302 301 297 296 294 294 294 293 293 292 294 293 292 291 291 291 290 292 290 290 290 287
312 306 313 311 310 310 312 311 310 310 311 312 312 311 309 309 309 308 306 305 303 302 300 297 295 294 293 293 293 293 293 293 293 292 291 291 290 290 290 291 290 290 288 286
315 311 308 309 306 311 313 313 311 311 311 310 309 310 311 307 307 308 306 304 302 301 296 295 294 293 293 293 293 293 293 293 292 292 291 290 290 289 289 289 290 288 286 285
306 311 312 309 306 310 311 317 310 311 311 310 310 316 314 308 306 305 304 301 297 294 294 293 293 293 293 293 292 292 292 292 292 291 290 289 289 288 287 288 288 287 285 284
303 313 310 306 307 309 314 315 308 311 311 309 313 315 309 306 305 303 299 295 293 293 293 293 293 293 292 292 292 292 292 291 291 290 290 289 288 287 287 287 286 285 284 283
305 310 315 306 311 315 314 308 309 310 310 310 311 307 305 304 302 297 293 293 293 293 292 292 292 292 291 291 292 291 291 290 290 289 289 289 288 287 286 286 285 284 283 283
311 315 309 306 312 309 307 309 309 310 309 309 307 306 303 300 296 294 293 292 292 292 292 292 291 291 291 291 291 290 289 289 289 289 288 288 287 287 286 285 285 285 284 284
310 311 307 307 307 306 307 309 308 309 310 308 308 306 298 295 294 292 292 292 292 292 291 291 290 290 290 290 289 288 289 289 289 288 288 288 287 286 285 285 285 284 284 284
309 309 308 308 308 310 309 307 308 308 308 308 307 302 297 295 293 292 292 291 291 291 290 290 289 290 290 289 288 288 288 288 289 288 288 288 287 286 285 285 285 285 284 283
315 310 310 310 308 308 310 310 309 308 304 303 300 297 294 294 293 292 292 291 290 290 290 289 289 289 288 287 287 287 287 288 288 288 288 287 287 286 285 285 285 284 283 283
310 308 307 308 307 308 309 308 306 303 299 297 296 297 297 294 292 291 291 290 290 290 289 289 289 288 287 286 286 287 287 287 288 287 288 287 286 286 286 286 285 283 283 282
308 308 311 308 309 304 299 296 295 295 296 296 296 294 292 292 291 291 290 290 290 290 289 289 288 287 287 287 287 287 287 287 287 288 288 287 287 286 286 285 285 284 283 282
306 306 306 298 296 296 296 298 297 296 294 293 292 292 292 291 291 290 290 290 290 289 289 288 287 287 287 287 287 287 287 287 287 287 286 286 286 285 284 284 284 283 283 283
299 297 298 299 298 298 296 295 294 293 292 292 293 291 291 291 291 291 290 290 289 290 289 288 288 288 287 287 287 287 287 287 286 286 286 285 285 284 285 284 284 284 283 283
302 299 298 297 296 296 295 294 294 294 293 294 292 291 290 291 290 290 290 289 289 289 289 288 289 289 288 287 287 286 286 286 286 285 286 285 285 285 285 284 284 284 283 283
296 295 295 295 295 294 294 294 294 294 292 291 291 290 290 289 289 289 289 289 289 289 289 289 289 288 288 287 287 286 286 286 285 285 285 285 285 284 285 284 283 283 283 283
295 295 295 295 294 295 294 291 290 290 290 290 290 290 289 289 289 289 288 288 288 288 290 290 289 288 288 288 287 287 286 286 286 285 285 285 284 284 284 283 283 283 282 282
294 293 292 291 290 291 290 290 290 290 290 290 290 289 289 290 290 289 288 286 288 290 290 289 288 288 287 286 286 286 286 286 286 285 285 285 284 283 283 283 283 282 282 282
290 290 290 289 289 290 290 290 291 290 290 290 290 290 289 290 289 287 286 286 289 288 288 288 288 287 286 286 285 284 284 284 285 286 286 285 284 283 282 283 283 282 282 282
291 291 290 289 289 289 290 290 290 290 290 289 289 289 288 288 288 288 288 287 288 288 288 288 288 287 286 284 283 283 283 284 285 285 285 285 284 284 284 284 283 283 283 283
290 289 289 289 289 289 289 288 287 286 286 286 286 287 286 286 286 285 287 287 286 286 286 287 287 286 285 284 283 283 283 283 283 284 284 284 284 284 284 284 284 284 283 283
289 289 288 288 287 286 285 285 283 283 283 284 284 284 285 285 285 284 284 284 284 284 284 284 285 285 285 284 282 282 281 280 280 280 280 281 282 284 285 284 284 284 284 283
286 285 284 284 283 283 282 280 281 281 281 281 281 282 283 283 283 283 283 284 284 285 284 285 284 284 283 281 280 278 277 275 274 274 275 276 277 279 281 283 284 283 283 284
284 283 282 282 281 280 278 277 278 278 277 277 277 278 278 278 280 282 282 283 284 284 285 284 282 281 279 278 277 276 274 273 272 272 272 271 272 273 274 276 279 281 283 284
280 279 279 279 277 276 274 274 274 274 274 274 274 275 275 275 276 278 279 280 281 281 280 277 276 275 274 274 273 272 272 271 271 271 270 270 270 270 271 272 274 277 281 283

GFSNGP_925_thetae_030.txt.gz
Theta_e
317 317 317 317 318 319 318 318 318 315 316 314 315 315 317 319 320 319 317 315 314 313 310 307 306 305 303 300 299 298 297 297 297 297 297 296 296 295 293 293 293 293 293 292
320 317 316 317 317 317 318 318 318 317 317 316 316 315 316 318 318 318 316 314 313 312 309 306 305 305 300 300 298 297 297 296 296 296 296 295 294 293 293 293 293 293 292 291
319 314 315 321 318 317 316 317 317 318 317 316 315 315 316 317 317 316 316 314 312 310 307 306 304 300 300 298 296 296 296 295 295 296 295 294 293 293 292 292 293 292 292 291
321 313 328 314 313 314 316 316 316 315 315 314 315 316 316 316 317 316 315 313 312 309 306 305 301 299 298 296 296 296 295 295 295 294 294 293 293 292 292 292 292 292 291 291
327 316 314 311 311 312 315 314 315 315 314 314 315 315 317 315 314 315 314 312 311 307 304 301 298 297 296 296 296 295 294 294 294 294 293 293 292 292 292 291 291 291 291 290
316 332 333 315 312 313 314 316 313 315 316 315 315 318 313 315 313 313 312 311 307 303 299 298 297 296 296 296 295 294 294 293 293 293 292 292 292 292 291 290 290 290 290 289
319 326 318 312 310 313 316 315 315 315 316 316 317 315 315 314 313 312 310 306 301 299 297 296 296 296 295 295 294 293 293 293 293 292 292 291 291 291 291 290 290 289 288 287
317 326 326 310 314 319 316 316 314 315 316 317 316 315 312 312 312 309 305 299 297 297 297 297 295 295 294 293 292 292 292 292 291 291 291 290 291 291 290 290 289 289 287 286
318 319 313 312 316 315 314 315 314 314 314 315 315 313 311 310 307 303 298 296 298 297 295 295 294 293 292 292 292 292 291 291 291 291 290 290 290 290 290 289 289 288 288 287
315 314 314 313 313 312 312 313 313 313 313 313 314 313 309 305 302 299 297 296 296 295 295 294 292 291 292 292 291 291 291 291 291 291 291 290 290 289 289 289 289 288 287 287
316 315 313 313 312 312 313 314 314 313 313 313 313 312 307 302 299 297 295 293 294 294 293 292 291 291 291 291 290 290 290 290 290 290 290 290 289 289 289 288 288 287 287 286
318 313 313 314 313 312 313 314 314 313 312 309 310 306 301 300 295 294 293 293 293 292 292 291 291 291 291 290 289 289 289 289 290 289 289 289 289 288 288 287 286 285 285 284
315 314 314 313 312 310 310 308 307 306 304 302 299 298 296 293 293 292 293 292 292 292 291 291 291 290 290 289 288 288 288 289 289 289 289 289 289 288 288 288 287 286 285 284
310 313 314 307 306 303 303 302 300 298 296 295 294 294 294 293 293 293 293 292 292 291 291 291 290 290 289 289 288 288 288 288 288 288 288 288 289 289 288 288 287 287 286 284
305 307 305 303 302 301 299 298 297 295 294 293 293 293 293 293 293 293 292 291 291 290 291 291 290 290 289 289 288 289 289 289 288 287 287 287 287 287 287 288 287 286 286 285
303 303 301 300 298 297 297 296 296 295 295 295 294 293 293 293 293 292 292 291 290 291 292 291 289 289 289 289 289 289 289 288 287 287 287 287 286 287 287 287 287 286 286 285
301 299 297 296 296 296 296 296 296 296 296 296 295 292 292 291 291 291 291 291 289 289 290 289 289 289 290 289 290 290 289 289 288 287 287 287 287 287 286 286 287 287 286 285
297 296 296 297 297 295 297 297 296 295 294 292 291 290 290 290 291 290 289 289 289 289 290 290 290 289 289 289 289 289 289 288 288 288 288 287 286 287 287 287 286 286 286 285
298 298 297 297 296 296 294 292 292 291 290 290 290 290 289 289 289 289 289 288 288 290 291 291 290 289 289 288 288 287 288 287 287 287 287 286 286 286 286 286 286 286 286 286
295 294 293 293 292 292 292 291 290 291 291 290 289 290 290 290 289 289 288 289 288 289 289 288 288 288 288 288 287 287 287 286 286 286 286 287 287 286 286 286 285 285 286 285
293 293 291 291 291 289 289 289 289 290 290 288 288 288 287 288 288 288 289 289 290 290 288 287 288 288 288 288 287 286 285 284 284 284 285 286 286 286 285 285 285 285 285 285
294 291 289 290 291 291 289 288 287 286 285 285 285 286 286 286 286 286 286 286 287 286 285 286 286 286 287 286 285 285 285 285 284 284 285 285 285 286 285 285 285 285 285 285
292 291 290 289 289 289 288 285 284 284 284 284 284 283 284 284 285 285 285 285 284 284 284 284 284 285 285 284 285 285 284 284 284 284 283 283 283 283 284 284 285 285 284 284
291 290 288 287 285 285 285 283 282 283 282 282 281 281 281 281 282 282 282 282 283 283 283 284 284 285 284 284 284 284 282 281 280 279 279 278 279 279 280 281 282 282 284 285
286 286 285 285 285 284 282 281 281 281 280 279 279 279 278 279 279 279 279 279 281 281 281 282 283 283 281 280 279 278 278 278 276 275 275 275 275 275 276 276 276 277 278 280
286 285 284 282 281 280 279 278 278 278 277 278 277 277 276 277 277 277 277 277 278 277 278 277 275 275 275 274 274 274 274 273 273 272 272 272 272 272 272 272 273 274 276 277
281 280 281 281 278 277 276 275 276 276 276 275 275 275 275 275 275 275 274 274 274 274 274 273 272 270 270 270 270 270 270 270 268 268 268 269 269 269 269 269 270 271 273 274

GFSNGP_925_thetae_033.txt.gz
Theta_e
321 321 320 320 319 320 320 319 321 319 316 315 315 316 317 317 319 320 322 322 322 321 319 316 313 311 308 306 306 302 303 300 300 299 298 298 298 297 296 295 295 295 294 294
324 322 320 320 320 318 318 318 317 317 317 317 317 317 317 316 318 319 321 321 320 319 318 315 313 310 307 305 302 303 300 299 299 298 297 297 297 296 295 294 294 294 294 293
319 318 318 323 321 320 318 318 318 320 318 316 317 316 316 316 317 318 319 320 319 318 316 314 311 309 306 303 303 300 299 299 298 296 297 296 295 294 294 294 294 294 294 293
322 318 326 315 315 315 317 317 317 316 316 316 315 317 317 317 317 317 317 317 318 316 315 313 310 306 303 303 300 298 298 298 296 296 296 295 294 294 294 294 294 293 293 293
329 318 316 314 313 314 315 315 315 315 315 315 316 317 317 317 315 315 315 316 316 315 313 311 307 304 302 300 298 299 297 296 295 295 295 294 294 294 294 293 293 293 293 293
319 328 329 319 314 314 315 317 314 314 314 315 316 318 317 316 314 314 315 315 315 314 311 308 304 301 300 299 299 298 296 295 294 294 294 294 293 293 293 293 292 292 291 291
322 327 321 316 314 315 318 319 316 315 315 316 316 317 318 316 315 315 315 314 313 310 307 303 301 299 300 299 297 295 294 294 294 293 293 293 293 293 293 292 292 292 291 290
325 327 326 314 315 317 319 315 315 316 315 317 318 317 317 315 315 315 314 311 307 304 302 299 300 298 298 297 294 294 293 293 293 292 292 292 292 292 292 292 292 291 290 289
321 321 316 315 314 315 315 315 315 315 315 315 316 316 316 315 313 312 310 304 301 300 299 298 297 296 294 293 293 293 292 292 292 292 292 292 292 292 292 291 291 291 290 290
318 315 315 314 314 314 314 315 315 315 315 315 316 316 316 313 309 306 303 300 299 299 297 296 295 293 293 293 292 292 292 292 292 292 292 292 291 291 291 290 290 290 290 289
318 316 316 315 315 315 316 316 316 316 316 315 315 315 314 308 304 301 297 295 295 295 294 294 293 292 293 292 292 292 291 291 291 291 292 291 291 291 291 290 290 289 289 289
320 316 317 317 316 315 315 314 313 313 313 309 310 309 304 301 297 295 294 294 294 294 294 293 292 292 292 292 291 291 291 291 291 291 291 291 290 290 290 289 289 288 288 287
318 316 316 315 310 309 308 308 307 306 304 302 299 297 296 294 294 294 294 294 294 293 293 292 292 292 292 291 290 290 290 290 290 290 291 290 290 290 290 289 289 288 288 287
311 314 315 309 309 307 303 300 298 297 296 296 295 295 294 294 294 294 294 294 294 293 293 293 292 292 292 291 291 290 290 290 290 291 291 289 289 289 289 289 289 289 289 288
309 308 308 306 304 302 299 298 297 296 295 294 294 294 294 294 295 295 295 293 293 292 292 292 292 292 292 291 291 291 291 291 291 291 290 289 288 288 288 288 288 288 288 288
305 304 303 302 300 298 297 297 297 297 297 297 296 295 295 295 295 294 293 293 292 292 292 291 291 291 291 291 291 291 292 292 291 290 290 289 288 288 288 288 288 288 288 288
301 300 299 299 299 300 301 300 299 298 298 297 294 293 293 293 293 293 293 292 291 290 290 290 290 291 291 291 291 291 292 292 291 290 290 289 289 289 288 288 288 287 287 287
300 300 300 300 299 299 298 297 296 294 294 293 291 291 291 291 291 292 292 290 290 289 290 291 292 291 291 290 291 291 291 291 290 290 290 289 289 288 288 287 287 287 287 287
300 299 299 298 297 296 294 294 293 293 292 291 290 290 290 290 291 290 289 289 289 291 291 291 291 289 289 289 290 290 289 289 289 289 288 287 287 288 287 287 287 287 287 287
297 296 295 294 294 294 293 292 293 292 292 289 289 289 289 289 288 288 288 288 289 289 289 288 286 287 287 288 289 289 288 288 288 287 286 286 286 286 287 287 287 287 286 286
295 294 293 293 292 290 290 290 289 290 289 286 286 286 286 286 287 286 286 286 286 287 285 284 284 285 285 285 285 287 287 288 287 286 286 286 286 286 286 286 286 286 286 286
295 292 292 292 292 292 290 288 287 286 285 285 285 284 284 284 284 285 284 284 284 283 283 283 284 284 284 284 285 285 285 286 287 286 285 285 285 285 285 285 285 285 285 286
294 292 291 291 292 291 287 285 284 284 284 283 283 282 281 282 282 282 283 282 280 281 280 281 282 281 281 282 284 285 285 285 286 284 283 282 282 282 282 281 281 282 282 283
293 292 291 289 287 287 286 285 284 284 282 281 281 280 280 280 280 280 280 279 279 278 279 279 278 276 278 280 280 281 281 281 281 280 279 279 279 278 278 278 278 278 278 278
289 289 287 287 287 286 284 283 282 282 281 280 280 280 279 279 278 278 278 277 276 276 276 276 275 273 275 275 276 276 277 275 275 275 275 275 275 275 275 275 275 275 275 276
289 289 286 284 283 282 281 280 280 280 279 280 279 278 278 278 277 276 276 275 275 274 274 274 273 272 272 272 272 272 272 272 270 270 271 271 271 272 272 271 271 272 273 273
283 284 284 284 281 279 278 278 278 278 278 277 276 277 277 276 275 275 274 274 273 273 272 272 272 271 270 269 270 269 269 268 268 267 268 268 268 269 268 268 269 270 270 271

GFSNGP_925_thetae_039.txt.gz
Theta_e
318 320 321 321 321 320 318 319 318 318 319 317 315 314 313 314 316 317 317 320 319 318 317 319 319 317 317 317 311 308 305 304 303 302 300 300 301 299 298 298 297 296 295 295
322 322 319 319 320 318 317 319 318 317 317 315 314 313 312 312 313 314 313 313 318 319 319 318 318 317 316 312 308 306 304 302 301 302 302 298 298 297 297 297 296 295 295 294
322 315 315 313 315 317 318 318 317 316 315 314 313 313 313 313 313 314 313 313 314 317 318 319 318 317 311 308 306 304 303 302 301 299 298 298 297 296 295 295 295 294 294 294
315 313 310 315 314 314 314 313 312 312 311 313 313 312 312 310 310 310 310 311 311 312 316 316 315 312 306 304 304 301 299 299 299 298 296 295 294 294 294 295 294 295 294 294
313 315 316 315 314 315 314 314 313 313 312 312 312 311 314 313 311 311 311 310 311 312 308 307 305 304 304 301 299 299 298 296 295 294 294 294 294 294 294 293 294 294 294 293
315 316 311 315 313 314 313 316 315 314 314 314 313 313 315 313 312 311 305 303 302 301 300 300 298 298 297 297 296 296 295 295 295 295 294 293 293 293 293 294 293 293 293 293
309 310 314 317 314 314 312 314 315 313 314 313 313 315 314 313 311 306 302 300 299 298 298 297 297 297 296 295 294 294 294 294 293 293 293 293 293 293 293 293 292 292 292 292
316 316 317 313 314 314 316 314 313 313 313 314 313 314 313 310 302 301 300 298 297 296 296 296 296 296 294 294 294 295 294 293 293 293 293 292 293 293 292 292 292 292 292 292
317 316 316 312 313 314 313 314 314 314 315 315 314 313 305 302 301 299 297 297 296 296 295 294 294 295 295 295 294 293 293 293 292 292 292 292 292 292 292 292 291 291 291 290
315 317 314 316 315 315 315 314 308 307 309 308 303 302 300 298 297 296 295 295 295 295 295 294 294 294 294 294 294 293 292 292 292 292 292 291 291 291 292 291 291 290 290 290
315 317 317 314 314 312 311 308 304 303 303 301 300 299 297 296 296 295 295 295 295 295 295 294 294 294 293 293 293 292 292 292 291 291 291 291 291 291 290 291 291 290 290 289
314 316 314 311 309 308 306 305 303 301 300 298 297 296 295 295 295 295 295 295 295 295 294 294 293 293 293 292 292 292 291 291 290 290 290 291 290 290 291 290 290 289 288 289
316 311 308 306 304 304 303 302 301 299 298 297 296 295 295 294 295 295 295 295 295 293 293 293 293 293 292 292 292 292 291 291 291 291 290 290 290 290 290 290 290 289 288 288
311 308 307 306 303 301 300 298 297 296 296 295 295 295 295 295 295 295 294 294 293 293 292 291 290 290 290 290 291 292 292 292 291 291 291 291 290 290 290 290 289 288 289 288
307 307 304 301 300 299 297 297 296 295 295 295 295 295 295 294 293 292 292 291 290 290 289 289 290 291 291 291 291 291 291 291 291 291 291 291 290 290 290 290 289 289 288 288
305 303 301 300 300 298 297 296 295 294 294 293 292 292 292 292 292 292 290 289 288 287 287 288 288 288 287 288 287 287 288 287 287 288 288 289 290 290 290 289 288 288 287 288
301 300 299 299 299 299 297 296 295 294 292 290 288 289 289 290 289 288 285 285 285 287 288 288 285 284 284 284 284 284 284 285 285 285 286 287 288 288 288 288 288 288 287 287
300 300 299 299 298 296 295 294 292 290 288 288 288 287 287 286 286 286 286 286 287 286 284 283 281 281 282 283 282 281 282 282 282 283 283 284 285 286 287 286 287 287 286 286
301 300 299 298 296 295 293 291 290 288 287 287 286 287 285 285 286 285 285 285 282 281 281 280 279 281 279 278 278 278 279 280 281 281 282 283 284 285 286 287 286 286 286 286
297 295 295 293 293 293 291 291 288 286 286 285 283 282 283 284 282 283 283 282 280 279 278 278 278 276 275 275 277 277 278 279 279 279 280 283 284 285 285 286 286 285 284 283
294 292 291 291 289 289 289 288 286 284 284 282 281 281 282 282 282 282 281 280 279 276 276 277 275 273 273 274 275 275 274 275 274 275 276 277 279 279 280 279 279 279 278 278
293 291 290 290 288 287 286 284 284 282 282 282 280 280 280 281 280 280 279 277 276 275 274 275 274 273 272 271 272 272 271 272 270 271 271 273 274 275 275 275 275 274 274 275
291 291 291 289 287 285 285 284 282 282 282 281 280 280 279 280 279 277 277 276 275 274 274 274 273 272 271 270 270 270 269 270 268 268 269 269 270 271 271 270 270 271 271 271
291 290 289 289 286 284 284 284 283 282 282 281 280 279 279 278 278 276 275 275 274 274 273 272 271 271 270 269 269 268 268 267 267 267 267 267 267 268 268 268 268 268 268 269
290 289 288 287 285 283 282 282 282 281 280 280 279 278 278 278 277 275 275 273 273 272 272 271 270 270 269 268 268 267 267 266 266 266 265 265 265 265 265 265 266 267 267 267
287 284 283 282 282 280 280 280 280 279 279 278 277 276 277 277 275 274 273 272 271 271 270 270 269 268 268 268 267 266 266 265 264 265 264 263 263 263 263 263 264 265 265 266
285 283 281 280 279 279 279 279 278 277 277 276 275 275 276 275 274 273 272 270 270 270 269 269 268 267 267 267 266 265 265 264 263 263 263 262 261 261 261 262 262 262 263 263

GFSNGP_925_thetae_042.txt.gz
Theta_e
316 318 320 320 320 320 318 317 316 316 316 315 314 313 312 311 314 316 318 320 318 316 313 316 317 318 317 315 313 309 307 306 304 302 301 300 300 300 299 297 297 296 295 294
319 318 317 318 317 316 317 317 317 316 316 311 311 310 311 311 311 311 312 316 319 316 315 316 317 317 315 311 309 306 304 303 301 301 301 300 298 297 297 297 295 294 294 294
319 313 314 314 314 315 316 317 317 315 313 312 312 312 310 310 310 310 310 310 314 317 316 317 317 316 313 308 304 304 302 301 300 298 298 297 297 296 295 295 295 294 294 294
313 310 313 316 313 314 312 311 310 310 311 311 312 312 310 308 309 309 309 309 308 308 308 311 311 309 306 304 302 300 299 298 297 296 295 295 295 295 295 295 294 294 294 294
312 313 314 315 312 311 313 314 312 311 312 311 312 312 312 310 307 306 304 302 301 300 299 301 301 301 299 298 297 296 295 294 295 295 295 296 297 297 295 294 293 293 294 293
312 312 311 313 312 312 312 314 313 312 313 314 312 314 313 307 302 301 299 299 298 298 297 297 296 297 296 295 294 294 295 296 296 298 298 297 295 293 293 293 293 292 292 292
305 308 309 311 312 312 311 310 312 312 312 312 313 312 305 301 300 298 298 297 296 295 295 295 296 296 294 295 295 297 299 299 299 296 294 293 293 293 292 292 292 292 292 292
311 309 313 313 313 313 311 312 311 312 312 312 308 303 302 300 299 297 296 296 295 295 295 295 296 297 296 298 298 298 295 294 293 293 293 292 292 292 292 292 292 291 291 291
314 313 313 312 313 311 312 313 313 313 312 310 304 302 300 299 297 296 295 295 294 294 294 294 294 295 295 294 293 293 293 293 292 291 291 292 291 291 291 291 291 291 291 290
315 316 316 315 313 312 309 306 305 306 305 303 302 299 297 296 296 295 296 295 294 294 294 294 294 293 293 293 293 292 292 292 291 291 291 291 290 290 291 291 290 290 290 290
316 315 314 311 309 305 304 302 302 301 300 299 298 297 296 296 296 295 295 295 294 294 294 294 293 293 293 292 292 292 292 292 291 291 291 290 289 289 290 290 290 290 290 290
312 314 311 309 306 305 303 302 300 299 298 297 296 295 294 294 295 295 294 294 294 293 292 292 292 292 291 291 291 292 291 291 291 291 291 291 290 290 290 290 290 290 290 290
313 309 306 303 302 302 301 299 298 297 296 295 295 294 294 294 294 294 293 292 292 291 290 290 289 290 291 291 291 291 291 290 290 290 289 289 288 288 288 289 289 290 290 289
305 305 304 304 301 299 298 296 296 295 295 294 294 294 294 293 292 291 290 290 289 289 289 289 289 288 288 288 288 287 286 286 286 285 286 286 287 288 288 288 288 288 289 289
305 304 302 299 297 296 296 296 295 294 293 292 293 292 292 291 290 289 288 288 287 287 287 287 287 285 284 284 283 283 284 284 284 284 284 284 284 285 286 287 288 288 288 288
301 300 299 298 297 296 295 294 293 292 291 291 290 291 290 290 287 285 285 286 286 286 286 284 282 281 281 283 282 282 281 281 281 281 281 282 282 283 283 284 286 287 287 287
300 299 298 297 297 297 295 294 293 291 289 287 287 289 287 285 285 285 285 285 285 283 281 280 279 280 280 280 278 278 277 278 279 279 280 281 280 281 282 283 284 285 287 287
299 298 298 298 297 295 294 292 290 288 288 287 286 285 286 285 285 285 284 283 282 281 278 278 279 278 277 275 276 276 276 277 277 278 278 278 278 280 282 283 284 285 285 286
299 299 298 297 295 293 291 289 287 287 287 286 285 284 284 283 283 283 282 281 279 278 277 277 276 275 273 273 274 275 274 274 274 273 274 274 276 277 278 277 279 282 283 283
298 297 295 294 292 290 288 286 286 285 284 283 283 283 282 282 282 282 280 277 276 275 276 275 274 273 272 272 272 271 272 271 270 270 270 271 272 273 274 273 274 274 274 274
294 292 291 290 290 289 286 285 284 283 281 281 282 281 281 280 281 280 279 278 276 274 274 274 273 271 271 270 270 269 269 269 268 268 268 268 269 270 270 270 270 271 271 272
291 290 289 288 287 286 285 284 283 282 280 280 280 280 280 280 279 277 277 276 275 274 273 273 272 271 270 269 268 268 267 267 267 266 266 266 266 267 267 267 268 268 269 269
290 289 288 287 286 284 283 282 282 282 280 280 280 279 279 279 278 276 276 275 274 273 272 272 271 270 269 268 268 267 267 266 266 265 265 264 265 265 265 265 265 266 267 267
290 289 287 285 284 283 283 281 281 281 280 279 279 279 279 278 276 275 275 274 273 272 271 271 270 269 268 268 267 266 266 265 265 264 264 263 263 263 263 263 263 264 264 265
289 288 285 284 284 283 283 282 281 280 279 278 277 277 278 277 276 274 273 272 271 271 270 270 269 268 267 267 266 266 265 264 264 263 263 262 262 261 261 261 262 262 262 263
287 285 283 282 281 281 281 280 279 279 278 277 276 275 276 275 274 273 272 271 270 270 269 269 268 267 266 266 265 265 264 264 263 262 262 261 261 261 261 260 261 261 261 261
281 280 280 279 279 279 279 278 277 277 277 276 275 275 275 274 273 272 270 269 269 269 268 268 267 266 265 265 265 264 264 263 262 262 261 261 260 260 260 260 260 260 260 260

GFSNGP_925_thetae_045.txt.gz
Theta_e
315 315 317 318 319 318 317 315 316 316 315 314 313 311 309 309 312 317 320 319 317 315 313 317 318 318 316 315 313 310 307 305 304 303 302 301 300 300 299 297 296 295 295 295
318 316 315 318 317 316 316 316 315 315 315 311 310 310 309 309 310 311 313 316 317 316 313 314 316 316 313 312 309 308 306 304 303 302 300 300 298 296 295 295 297 298 297 295
315 313 313 314 313 315 315 315 315 315 312 311 311 309 308 308 309 309 308 309 309 312 313 314 314 313 309 308 307 305 304 302 300 298 296 296 296 297 299 299 298 297 296 294
312 310 314 314 313 313 313 311 309 311 310 310 310 309 308 307 308 308 306 304 302 302 303 306 308 307 304 303 302 301 298 297 295 295 295 298 299 299 298 297 296 294 293 293
313 313 313 315 311 311 312 313 311 310 310 311 310 310 309 303 302 301 299 298 297 297 297 299 299 299 299 297 296 295 295 295 296 298 299 298 297 297 296 295 293 293 293 293
309 313 314 314 312 310 310 312 311 311 311 311 311 312 311 302 299 298 297 296 296 296 295 296 295 295 295 295 295 295 296 298 298 299 299 297 296 294 293 293 292 292 292 292
305 309 311 309 311 310 311 310 310 311 310 310 311 308 302 299 297 296 296 295 295 295 294 295 296 296 296 298 298 298 299 300 299 295 294 293 293 293 292 292 292 292 291 291
306 305 315 310 311 310 309 310 310 309 310 306 303 301 299 298 297 296 295 295 295 295 294 295 296 297 296 296 296 295 294 293 293 293 292 291 291 291 291 291 291 290 290 291
313 312 310 312 311 310 309 311 311 311 308 303 302 300 298 297 296 295 294 294 294 294 294 294 294 294 293 293 293 293 292 292 291 291 291 291 291 290 290 290 290 290 290 290
314 315 315 313 309 308 309 309 309 308 303 302 300 298 297 296 295 294 294 294 294 294 293 293 293 292 292 292 292 292 291 291 291 291 291 290 290 289 289 289 289 289 288 288
314 314 313 310 305 304 303 302 301 300 301 299 298 297 296 295 294 294 294 294 294 293 292 291 291 290 290 291 291 291 291 290 290 290 289 289 289 289 289 290 289 289 288 288
312 313 312 310 304 303 302 301 299 299 297 297 296 295 294 294 294 294 293 292 291 290 290 289 290 290 289 289 289 288 287 286 286 285 284 284 285 285 285 286 287 287 288 288
312 311 306 303 301 300 300 298 297 296 295 295 295 295 294 292 292 291 291 290 289 288 289 288 287 286 285 285 285 284 283 283 283 283 283 283 283 283 283 283 284 285 286 287
304 304 303 302 300 298 297 296 295 294 294 294 293 292 291 290 290 289 288 288 288 287 286 285 284 282 282 283 283 282 282 281 281 280 281 281 281 281 281 281 282 283 283 285
303 303 302 298 296 296 295 295 294 293 292 292 292 290 290 289 287 287 286 287 287 286 284 282 281 281 281 280 279 278 278 278 278 278 279 279 280 280 279 280 281 281 282 283
299 298 298 297 296 295 294 293 292 291 290 291 290 290 289 286 285 285 286 286 285 282 280 280 280 279 278 277 276 276 276 277 277 277 278 278 278 278 278 279 278 281 282 282
298 297 296 296 295 294 294 293 292 291 290 289 289 287 285 285 285 284 283 283 281 279 279 279 277 276 275 275 275 275 275 275 274 275 275 274 274 275 276 278 276 275 275 278
299 298 298 296 295 295 294 291 289 289 288 287 286 285 285 285 284 282 281 280 279 278 278 276 275 274 273 273 274 274 273 273 272 271 271 271 271 272 273 272 273 273 273 274
299 298 297 296 295 293 291 289 288 287 286 285 285 284 283 284 282 280 280 279 277 277 277 275 274 273 272 272 271 271 271 270 270 269 269 269 269 269 270 269 269 270 271 272
298 297 295 293 291 290 288 287 286 285 284 284 282 282 281 281 281 280 279 276 275 275 276 274 273 272 271 270 270 269 269 268 267 267 267 267 267 267 267 267 267 267 268 269
294 292 291 289 287 287 287 286 284 283 282 283 282 281 280 280 280 279 278 277 275 274 274 273 272 271 270 269 268 268 267 266 266 265 265 265 265 265 265 265 265 265 265 266
291 290 288 287 286 285 285 284 282 281 281 281 280 280 280 278 278 277 276 276 274 273 273 272 271 270 269 268 268 267 266 266 265 265 264 263 263 263 263 263 263 263 264 264
290 289 288 287 286 284 283 282 281 280 280 280 280 280 279 278 277 276 276 274 274 273 272 271 270 269 269 268 267 266 266 265 264 264 263 263 262 262 262 262 262 262 262 262
288 288 287 285 284 282 282 281 280 280 280 279 279 279 278 277 276 275 274 273 273 272 271 270 269 268 268 267 266 266 265 264 264 263 263 262 262 262 261 261 261 261 261 261
288 286 285 284 284 283 282 281 280 279 278 278 278 278 278 277 276 274 273 272 271 271 270 269 268 267 267 266 266 265 265 264 263 263 262 261 261 261 261 261 260 260 260 260
286 285 284 282 282 282 281 280 280 279 277 275 275 276 276 276 274 273 272 271 270 269 269 268 267 267 266 265 265 265 264 263 263 262 261 260 260 260 260 260 260 260 260 260
281 281 280 279 278 279 279 278 278 277 276 275 275 275 275 274 273 271 270 269 268 268 268 267 266 266 265 264 264 264 263 263 262 261 261 260 260 260 260 260 259 259 260 260

GFSNGP_925_thetae_048.txt.gz
Theta_e
314 314 316 317 318 315 316 315 317 317 314 313 312 309 308 307 312 314 318 319 318 317 315 317 318 319 317 316 315 312 310 308 306 305 304 302 301 299 300 300 298 295 295 296
317 315 315 318 316 316 315 315 314 314 313 310 310 309 308 309 311 311 312 311 311 312 313 314 316 315 313 313 311 309 306 305 303 302 301 300 299 296 295 296 297 296 297 298
316 312 314 313 314 314 314 313 314 315 313 309 310 309 308 308 308 309 307 305 305 304 305 308 311 311 307 306 305 304 302 300 299 298 296 295 296 298 299 299 299 299 298 297
311 310 313 314 312 312 313 312 310 310 310 308 307 307 304 303 307 303 301 300 298 299 300 301 302 303 303 302 301 299 297 296 296 297 298 299 300 300 298 297 297 296 295 294
313 313 313 314 311 311 311 310 309 308 309 309 308 308 305 301 299 298 297 296 295 295 296 296 297 297 298 296 296 296 296 297 299 299 299 299 298 298 297 296 294 293 292 292
307 312 313 312 312 308 309 311 309 309 310 310 309 308 308 299 298 295 295 295 294 294 295 296 296 297 296 295 296 297 298 298 299 300 299 296 295 295 293 293 292 292 291 291
303 309 312 311 310 308 312 311 308 309 309 308 309 305 300 297 296 295 294 294 294 294 294 294 295 297 297 297 297 298 299 297 295 294 293 293 292 292 291 291 291 291 290 290
306 307 319 308 309 311 309 309 308 308 307 307 301 299 297 296 295 294 294 294 294 294 295 296 297 297 296 295 294 293 293 292 292 291 291 291 290 290 290 289 289 289 289 289
314 315 311 308 309 309 307 308 308 308 306 303 300 299 297 295 294 293 292 293 293 293 293 293 293 293 292 292 292 291 291 291 291 290 290 290 290 290 289 289 289 289 288 288
313 313 312 313 310 309 310 309 308 306 303 302 300 298 296 294 293 292 292 293 293 292 291 290 290 291 290 291 291 291 290 289 288 288 287 286 285 285 285 285 286 286 286 287
312 313 312 310 306 305 304 303 302 301 300 299 298 296 295 293 293 293 293 293 292 291 289 289 289 289 289 289 289 288 286 285 284 283 282 282 282 282 282 283 283 284 284 284
315 311 311 310 304 302 303 301 300 299 297 297 296 295 294 293 293 292 291 291 289 289 288 287 286 285 285 285 285 284 283 282 281 280 280 280 281 280 280 280 281 281 281 282
313 310 305 303 300 300 299 298 298 297 296 295 294 294 293 291 290 290 290 289 288 287 286 284 283 283 283 282 281 280 279 279 278 278 279 279 279 279 279 278 279 279 279 280
304 304 303 302 301 297 296 296 295 294 294 294 292 291 290 289 289 289 288 287 286 285 284 282 282 281 280 279 278 277 277 277 277 277 277 278 278 278 277 277 278 278 277 278
303 302 303 298 297 295 294 294 294 293 292 291 290 289 289 288 287 286 287 286 285 283 281 281 280 278 277 277 276 276 276 276 275 275 276 276 275 275 275 276 277 276 275 275
298 298 298 297 295 295 294 294 293 292 291 290 290 289 287 286 285 286 285 284 282 280 279 278 277 276 275 275 275 275 275 274 274 273 273 273 272 272 273 273 273 273 273 272
298 297 296 296 295 294 294 293 292 292 291 291 288 286 285 285 284 283 281 280 280 279 278 277 275 275 274 274 274 274 273 273 272 271 271 270 270 270 270 271 269 270 270 270
298 297 297 295 294 293 292 292 291 291 290 287 285 285 284 284 283 281 279 279 278 277 276 275 274 273 273 272 272 271 271 270 270 269 269 268 268 268 268 267 267 267 267 267
298 297 296 295 294 293 291 290 289 288 286 285 284 283 284 282 281 280 278 278 277 277 276 274 273 272 271 271 270 270 269 269 268 267 267 266 266 266 266 265 265 265 265 265
297 296 295 293 291 290 289 287 287 286 284 284 283 282 281 280 280 278 278 276 276 276 275 274 272 271 271 270 269 268 268 267 267 266 265 265 264 264 264 264 263 263 264 264
294 292 291 290 289 288 287 286 285 284 283 282 282 281 280 280 279 278 277 276 275 274 274 273 272 271 270 269 268 267 267 266 265 265 264 264 263 263 263 262 262 262 262 262
291 289 288 288 287 286 285 284 283 283 282 282 281 280 279 278 278 277 277 276 274 274 273 272 271 270 269 269 268 267 266 265 265 264 264 263 262 262 262 262 261 261 261 261
289 288 287 286 286 284 282 282 282 282 280 280 279 279 278 278 277 276 275 274 274 273 272 271 270 270 269 268 267 266 266 265 264 263 263 262 261 261 261 261 261 261 260 260
289 287 286 284 284 282 281 280 280 280 280 280 279 279 278 277 276 275 275 274 273 272 271 270 270 269 268 267 266 266 265 264 263 263 262 261 261 261 261 261 261 260 260 260
287 285 284 284 284 283 281 280 279 279 279 278 278 278 278 277 276 275 274 273 272 271 270 269 269 268 267 266 265 265 264 264 263 263 262 261 261 261 261 260 260 260 260 260
285 284 283 283 282 281 281 280 279 278 277 276 276 277 276 276 275 274 272 271 270 269 269 268 268 267 266 265 264 264 264 263 263 262 261 261 260 260 260 260 260 260 259 260
280 280 279 278 278 279 279 279 278 276 276 275 275 275 275 274 273 272 271 270 269 268 267 267 266 266 265 264 264 263 263 263 262 262 261 260 260 260 259 259 260 259 259 260

GFSNGP_925_thetae_051.txt.gz
Theta_e
314 313 316 319 319 319 319 320 323 321 317 318 317 316 313 310 314 316 318 318 319 320 321 321 322 320 317 317 317 317 314 310 308 306 305 303 302 301 300 300 299 299 298 297
317 315 315 318 317 317 318 316 316 316 316 315 312 310 311 313 316 316 315 314 314 314 315 317 316 314 311 309 308 308 307 304 303 303 301 300 299 298 297 296 296 296 297 296
319 314 315 319 317 318 317 316 319 319 319 312 312 312 312 312 313 312 310 309 309 308 308 308 308 307 306 304 304 302 301 299 298 298 297 296 297 297 298 298 297 297 297 298
318 313 322 318 313 314 317 315 314 313 313 312 312 309 307 307 309 306 305 304 303 303 302 302 302 302 301 300 299 299 298 297 297 298 299 299 300 300 299 298 298 297 296 296
321 320 317 315 313 315 316 317 313 314 311 310 309 309 307 302 302 302 301 299 298 298 298 299 299 299 299 298 298 298 298 299 299 299 299 299 298 297 296 295 296 295 293 292
313 320 323 319 313 310 311 317 312 311 312 311 311 317 314 302 300 299 298 297 297 297 297 297 297 298 298 298 298 298 298 298 299 298 296 295 294 293 293 292 291 291 291 290
314 321 318 313 311 310 319 320 312 311 312 313 313 311 306 300 298 297 296 296 296 296 297 297 297 298 298 298 299 298 295 294 293 293 292 291 291 290 290 290 289 289 289 289
314 319 322 311 309 316 318 310 311 311 312 312 305 301 300 299 297 296 296 296 296 296 296 296 297 297 295 294 293 292 291 291 290 290 290 290 290 289 289 289 288 288 287 287
320 322 317 310 315 311 310 312 310 312 309 305 303 301 299 298 296 296 295 295 295 294 293 293 293 293 292 291 291 290 290 289 288 288 287 286 286 285 285 284 284 285 285 285
318 317 314 312 312 311 310 311 309 310 307 304 303 300 298 296 295 295 295 294 293 292 292 291 290 290 289 290 290 289 287 286 285 284 283 283 283 283 283 283 282 283 282 282
315 314 314 314 312 311 309 308 306 306 305 304 301 298 297 296 295 294 293 292 292 291 290 289 287 286 286 286 286 286 285 283 282 282 281 281 281 281 281 281 280 280 280 280
319 316 317 316 313 307 307 307 305 303 301 300 299 297 296 295 294 293 292 291 291 289 287 285 284 284 283 283 282 282 282 281 280 280 280 280 280 280 279 278 278 279 278 278
315 312 306 304 303 304 304 303 301 301 299 298 296 295 295 294 292 291 290 290 289 286 284 283 283 281 280 280 279 279 279 279 279 279 279 279 278 278 278 278 277 277 277 276
306 307 307 304 306 301 300 299 297 296 296 295 294 293 292 291 290 290 289 288 285 283 283 283 280 279 278 278 278 278 278 276 277 277 277 277 276 276 276 276 276 276 275 274
306 303 305 300 299 297 296 296 296 295 294 293 292 292 291 290 289 288 287 285 283 283 282 280 279 277 277 277 277 277 277 276 275 275 275 274 274 274 274 274 274 273 273 273
301 300 300 300 298 297 296 296 295 294 293 292 291 291 290 288 287 285 283 283 283 282 279 277 277 276 276 276 276 276 275 273 273 273 273 273 272 272 272 272 272 271 271 270
301 300 298 298 298 297 296 295 294 293 292 292 289 287 287 286 284 284 282 281 280 278 277 276 276 275 274 274 274 274 273 272 271 272 271 271 270 270 270 270 269 269 269 268
300 299 299 298 296 295 294 294 293 292 291 288 287 286 285 285 284 281 280 279 277 277 276 275 274 273 273 273 272 271 271 270 270 270 269 268 267 268 268 267 267 267 267 267
298 297 296 295 295 294 294 293 291 288 286 286 286 285 284 282 281 280 279 278 277 277 275 274 273 272 272 271 270 270 269 268 268 268 267 266 266 265 266 266 265 265 265 265
296 295 295 293 292 292 290 288 287 286 285 285 284 283 282 280 279 278 278 278 278 277 275 273 272 271 270 270 269 268 268 267 267 266 265 265 264 264 264 263 263 263 263 264
293 292 291 290 289 288 287 287 286 285 283 284 283 282 281 279 278 277 277 277 276 275 274 273 272 271 270 269 268 268 267 266 265 265 264 263 263 262 262 262 262 262 262 262
291 290 289 288 287 287 286 285 284 283 282 282 281 280 279 278 277 277 277 277 275 274 273 272 271 270 270 269 268 267 266 266 265 264 263 262 262 261 261 260 260 260 260 260
289 288 287 286 285 284 283 283 282 282 281 280 280 279 279 278 277 277 276 274 274 273 272 271 270 270 269 268 267 267 266 265 264 264 263 262 261 260 260 259 259 259 259 259
287 286 285 283 283 283 283 281 280 280 280 279 279 279 278 277 276 275 275 274 273 272 271 270 270 269 268 267 267 266 265 265 264 263 263 262 261 261 260 260 260 260 259 259
286 285 285 284 283 282 281 280 279 279 279 278 277 277 277 276 276 274 274 273 272 271 270 269 269 268 267 267 266 265 264 264 263 263 262 262 261 260 260 259 259 259 260 260
282 282 281 281 282 281 280 279 279 278 277 276 276 276 276 276 275 274 272 271 271 270 269 268 268 267 266 266 265 264 264 264 263 262 262 261 260 260 259 259 259 259 260 260
279 279 278 278 277 278 278 278 277 276 276 276 275 275 275 274 273 272 271 270 269 268 268 267 267 266 265 265 264 264 263 263 262 262 261 260 260 259 259 259 259 259 259 260

GFSNGP_925_thetae_054.txt.gz
Theta_e
318 317 317 317 318 319 320 321 321 321 320 320 320 321 321 319 317 318 319 324 327 329 330 329 328 326 325 322 318 315 312 311 309 308 306 305 306 305 303 301 301 301 300 299
320 319 318 318 318 318 319 319 321 321 321 321 321 319 318 318 320 321 321 322 322 324 325 324 323 320 318 317 316 312 308 306 304 304 302 302 302 301 299 299 299 299 298 299
321 320 320 322 321 320 320 321 322 321 321 321 321 320 319 319 321 321 319 318 318 319 319 318 316 315 313 312 311 309 305 303 302 301 300 300 299 300 299 299 299 299 298 297
322 320 330 320 319 320 320 321 321 321 320 319 319 318 316 317 319 317 315 314 314 314 313 312 311 310 309 308 306 304 302 301 300 300 301 301 300 300 299 299 299 299 298 298
331 324 321 318 317 319 321 321 320 320 320 319 316 314 314 311 314 313 312 310 310 309 309 309 308 307 306 305 304 302 302 301 301 301 301 300 300 300 299 299 298 297 296 295
321 325 332 321 320 319 318 323 319 318 318 317 315 320 319 310 308 307 306 306 307 306 306 306 306 305 305 304 304 303 302 301 301 300 298 298 298 297 296 295 293 293 292 292
326 328 324 321 318 316 321 323 320 319 318 318 318 318 315 309 307 306 305 305 305 305 305 304 304 304 304 303 302 301 299 297 295 294 295 294 294 293 293 293 293 293 292 291
325 331 330 317 315 320 322 321 320 319 319 318 316 312 309 308 306 305 304 303 304 304 303 303 303 303 302 300 298 297 296 295 294 293 292 292 292 291 291 290 289 288 287 287
323 324 322 318 320 318 320 320 318 319 318 317 312 310 308 306 305 304 303 303 303 302 301 300 300 299 298 296 295 294 293 292 291 290 289 288 288 287 287 286 286 286 285 285
321 321 320 320 318 317 316 317 316 317 316 314 312 309 307 305 304 303 302 302 300 299 298 296 296 295 294 293 292 292 291 289 288 286 286 285 285 285 285 285 284 284 284 283
322 321 319 318 319 318 316 314 314 315 314 313 310 308 306 304 303 302 301 299 299 297 295 293 291 291 290 291 290 289 287 286 285 285 284 284 283 283 282 282 280 281 281 280
324 321 322 322 320 319 317 315 314 313 312 311 309 307 305 303 301 300 298 297 297 295 292 289 288 287 287 287 287 286 285 284 283 284 283 283 283 283 280 278 277 278 278 277
320 317 317 313 311 316 316 314 312 312 311 309 307 305 303 302 299 298 297 296 294 291 288 286 285 285 284 283 283 283 283 282 282 282 282 281 281 281 281 280 278 277 276 275
315 312 314 310 314 309 310 310 308 309 307 306 303 302 301 299 296 296 296 294 290 288 286 285 284 282 282 282 281 281 280 279 281 281 280 280 280 279 279 279 279 278 277 275
313 311 311 308 306 306 306 304 305 304 303 302 300 299 298 296 296 295 292 288 287 287 285 283 282 281 280 280 280 280 280 279 279 279 278 277 277 278 277 277 277 277 276 276
312 309 307 308 307 304 304 303 303 301 300 299 298 297 296 295 293 291 288 287 287 285 284 280 280 279 279 279 279 279 277 275 276 277 277 276 276 276 276 276 276 275 275 274
309 309 307 306 305 304 304 303 302 300 299 298 297 295 294 292 289 287 286 284 282 280 279 279 278 278 277 277 278 278 277 276 274 275 275 274 274 274 274 274 274 273 273 272
308 307 307 307 305 303 301 299 297 296 296 295 292 289 288 287 285 283 281 280 279 279 278 277 277 276 276 275 275 275 275 274 274 274 273 273 272 272 272 272 272 272 271 271
304 304 303 302 301 300 299 297 296 293 289 288 288 287 285 284 283 281 280 279 279 278 277 276 274 275 274 273 273 273 273 273 272 272 271 270 271 270 271 270 270 270 269 269
298 297 297 298 297 297 293 290 288 288 287 285 285 284 283 282 281 280 280 281 281 279 276 275 274 273 272 271 271 271 271 271 271 271 270 269 269 269 269 268 267 268 268 268
293 292 291 291 290 288 288 288 287 286 286 285 285 283 282 280 280 279 279 279 277 276 274 274 274 273 272 271 271 271 270 270 270 270 269 269 268 268 268 267 267 267 267 267
290 289 289 288 288 287 286 286 285 285 284 283 282 281 280 280 279 279 279 278 276 275 275 274 273 271 271 270 270 270 270 269 269 268 268 268 267 267 266 266 266 266 265 265
289 288 288 287 286 285 284 284 283 283 283 282 282 281 281 280 280 279 278 276 276 274 274 273 271 270 270 270 270 269 269 268 268 267 267 266 266 265 265 265 264 264 264 264
287 287 287 286 286 285 284 283 282 281 280 280 279 279 279 278 278 277 276 275 274 273 273 271 270 270 269 269 269 269 268 268 267 267 266 265 265 265 264 263 263 262 262 262
286 286 285 284 284 283 282 282 281 280 280 279 278 278 277 278 279 276 275 273 272 273 272 270 269 269 268 268 268 267 267 267 267 266 266 265 264 264 263 263 261 261 260 260
283 283 282 282 282 282 282 281 281 280 280 279 278 278 277 275 275 274 273 272 272 271 271 269 268 267 268 267 267 266 266 266 266 265 264 263 263 263 262 261 260 260 260 259
279 280 279 279 278 278 278 279 279 278 278 278 277 276 275 274 273 273 272 271 270 269 269 268 267 267 267 266 266 266 265 265 264 263 262 263 262 262 261 260 259 258 258 258

GFSNGP_925_thetae_057.txt.gz
Theta_e
320 320 319 319 320 321 321 321 323 322 322 321 321 321 321 322 322 321 321 324 326 327 329 330 331 331 327 322 320 318 315 313 311 310 309 308 307 305 304 303 302 301 300 300
320 319 319 318 318 318 319 319 319 320 320 320 319 320 322 322 321 322 321 322 327 329 331 331 329 328 324 319 316 314 311 309 309 309 309 309 307 306 305 302 301 300 300 299
324 320 320 324 319 319 319 319 319 320 320 320 320 320 321 321 322 322 323 323 325 328 329 326 324 323 321 317 313 311 310 309 309 308 306 305 305 304 303 302 301 300 300 300
328 324 330 321 320 320 320 319 319 319 320 320 319 319 321 321 322 323 322 322 323 324 322 320 319 317 316 314 312 310 308 307 306 305 305 304 304 303 303 302 302 301 300 300
330 326 321 319 320 321 320 320 320 320 320 320 320 320 320 319 321 321 320 319 319 318 317 315 314 313 312 310 309 308 307 306 306 305 304 304 303 302 302 301 301 300 298 297
327 327 328 321 320 320 320 325 320 320 320 319 320 322 320 318 319 318 316 315 314 314 313 313 312 311 310 309 308 307 306 305 304 304 303 302 302 301 299 297 296 295 294 294
330 328 323 320 320 320 324 325 321 320 319 319 320 320 320 317 315 313 312 312 312 312 312 311 310 310 309 308 306 304 304 302 301 300 300 299 297 296 295 295 295 295 293 292
328 331 331 321 320 322 323 323 321 321 320 321 321 319 317 315 313 312 312 310 310 310 310 309 309 308 307 306 304 302 300 299 298 296 295 295 295 294 292 291 291 290 289 289
324 325 323 321 323 321 322 322 323 322 321 321 321 317 315 314 312 311 310 310 309 309 308 308 308 306 304 302 300 299 298 296 294 293 292 291 291 290 290 289 288 288 287 287
323 323 322 322 322 321 321 322 322 322 321 320 320 316 314 312 311 310 310 309 308 307 306 305 304 302 300 299 298 296 295 293 291 290 289 288 288 287 287 287 286 286 286 285
320 319 320 321 321 321 321 320 320 319 320 320 318 315 312 311 310 310 309 307 306 305 303 301 300 298 297 296 295 293 291 290 289 288 288 287 286 285 285 283 281 283 283 282
321 317 323 321 322 321 322 322 319 318 318 318 316 314 312 311 309 308 307 305 304 302 300 298 296 295 294 293 292 290 289 288 288 287 286 286 286 284 282 281 279 278 278 277
319 319 320 321 319 318 320 321 320 317 317 316 314 312 311 309 308 306 304 304 302 299 296 294 292 290 289 289 289 288 287 286 284 285 285 285 284 284 284 281 280 280 278 277
318 318 318 317 318 316 316 319 315 316 315 315 313 310 309 308 305 304 303 301 298 294 292 290 288 287 286 285 285 285 284 284 285 284 284 283 283 282 282 282 282 282 279 278
319 318 317 314 312 313 312 313 314 314 314 313 310 309 307 305 303 301 299 296 293 291 289 288 286 285 284 284 284 284 284 283 283 283 281 280 280 281 280 280 280 280 279 279
319 318 316 314 314 312 310 309 311 311 311 309 308 306 304 301 300 297 294 292 291 289 286 283 283 283 283 283 282 281 279 279 281 281 280 280 279 279 279 279 279 279 278 278
316 317 315 314 313 311 309 309 309 308 307 306 305 302 299 298 294 292 289 285 282 281 281 281 281 281 281 281 281 282 281 278 277 279 279 278 278 278 277 277 277 277 276 276
312 311 311 312 314 310 308 307 306 304 303 302 299 295 293 292 289 284 283 281 280 280 279 279 278 278 278 278 278 278 278 277 277 277 277 276 275 275 275 276 276 275 275 274
307 308 307 307 307 307 305 303 301 296 291 290 290 288 285 284 283 281 280 280 279 279 278 277 276 276 275 275 276 276 276 276 276 275 275 273 274 275 274 275 274 273 273 273
298 298 296 295 295 294 292 291 290 290 288 286 285 284 283 282 281 281 281 282 281 278 277 276 275 275 274 273 274 275 275 275 274 274 274 272 274 273 273 272 271 272 272 272
291 290 290 289 289 288 288 287 287 286 286 285 284 283 282 282 282 281 280 279 277 277 276 275 275 275 274 273 274 274 274 274 273 273 273 273 272 273 272 271 271 271 271 270
290 290 289 288 288 288 287 286 286 285 284 283 282 282 282 281 280 281 280 278 276 276 276 275 274 273 272 272 273 273 273 272 272 272 272 272 271 271 271 270 270 269 269 269
289 288 287 286 286 285 285 284 284 284 283 283 282 282 282 281 280 280 279 277 277 276 276 275 272 271 271 272 273 272 272 272 271 271 271 270 270 269 269 269 268 267 267 267
287 287 286 286 285 284 284 283 282 281 281 281 281 280 281 280 279 278 277 277 275 276 275 272 271 270 270 272 272 271 271 271 271 270 270 269 268 269 268 268 267 266 266 265
286 286 285 285 285 284 283 283 282 281 281 280 280 279 279 280 280 278 277 275 274 275 273 271 270 269 270 271 271 270 270 269 269 269 268 268 268 267 267 267 266 265 264 263
283 282 282 283 283 283 283 283 282 282 281 281 280 279 278 277 277 276 276 275 274 273 273 271 271 270 270 270 270 269 269 268 268 268 267 267 266 266 266 265 265 264 263 263
280 280 280 280 279 279 279 279 279 278 279 280 278 277 277 276 275 275 274 274 273 272 272 271 270 270 269 268 268 268 268 267 267 266 265 265 265 265 264 264 263 262 261 261

GFSNGP_925_thetae_060.txt.gz
Theta_e
321 320 321 322 321 320 321 327 330 327 322 322 322 322 322 323 322 322 322 324 325 328 330 331 331 330 327 324 321 320 317 314 314 316 314 312 310 308 306 306 304 304 303 302
323 320 320 321 322 320 320 320 321 322 322 321 321 321 320 323 322 322 321 321 325 326 329 330 331 327 322 318 316 315 313 311 312 311 309 307 306 304 304 302 302 301 301 301
324 322 321 321 321 320 320 321 321 322 322 320 320 320 321 321 322 322 322 322 324 327 330 331 328 322 319 316 313 312 311 310 311 311 309 307 306 304 304 303 301 300 299 299
326 323 326 322 321 320 320 320 319 319 319 319 320 320 321 322 322 323 324 324 325 330 329 326 325 320 317 315 313 312 312 310 309 308 306 306 304 303 303 302 301 301 301 300
328 326 323 321 321 321 321 321 320 320 319 319 320 322 322 321 321 324 323 324 325 325 324 323 321 318 315 313 312 310 308 308 307 306 305 304 304 303 302 302 301 301 300 299
328 327 327 324 322 320 321 322 321 320 322 321 322 324 322 321 322 322 321 321 321 321 319 317 316 314 312 311 309 309 308 307 305 305 305 303 302 302 302 301 298 296 295 295
327 328 327 321 320 320 323 324 323 322 322 322 323 323 323 320 321 320 319 318 318 316 316 314 313 311 311 310 309 307 306 305 305 304 303 302 300 298 297 296 296 295 293 291
327 329 330 322 321 321 323 323 324 323 323 322 324 322 320 320 319 317 316 315 315 314 313 312 311 310 309 308 306 305 304 302 301 300 299 297 296 295 294 293 291 290 289 289
324 325 325 323 322 323 324 325 325 324 324 324 323 320 319 318 316 315 314 313 313 313 312 311 311 309 308 306 304 302 301 299 297 296 295 295 293 291 290 290 289 288 288 288
322 321 323 323 323 322 323 324 322 323 323 323 323 319 317 316 315 314 313 312 312 311 311 310 309 308 305 303 301 300 298 296 294 292 290 290 289 289 289 288 287 286 287 286
323 322 320 319 320 321 321 322 323 321 321 321 322 319 317 315 313 313 312 311 311 310 310 309 307 304 302 301 299 297 295 293 291 289 289 288 287 287 286 284 284 285 284 282
323 319 319 319 317 318 320 319 322 322 321 319 321 318 316 314 312 312 311 310 310 308 307 305 302 300 299 298 296 294 291 290 289 288 288 288 285 283 282 282 281 279 279 278
313 314 319 320 320 320 319 319 319 322 320 319 319 318 315 313 312 311 310 308 307 305 302 300 298 297 296 295 292 290 288 288 288 287 286 286 285 285 282 281 280 280 280 279
314 315 318 319 320 317 316 316 318 319 319 318 318 316 313 312 310 309 307 306 304 300 297 294 292 289 289 289 288 288 286 286 286 286 285 284 284 284 283 283 283 281 280 279
314 318 319 319 316 315 314 314 315 316 316 316 315 313 311 310 308 306 304 300 297 294 292 290 288 287 286 285 285 284 285 285 284 283 283 282 282 282 282 281 281 281 280 280
317 318 318 319 317 315 313 312 312 313 313 313 312 310 309 307 304 298 296 294 293 291 288 286 285 284 284 284 283 283 282 282 282 282 280 280 280 280 280 280 280 279 279 279
315 317 314 316 316 315 313 311 310 311 310 309 307 305 304 298 293 286 285 285 284 283 283 283 282 282 282 282 282 281 278 279 279 280 280 279 279 279 278 278 278 278 277 277
310 311 311 310 312 313 311 309 308 306 304 297 295 294 291 287 285 283 281 280 280 280 280 279 279 279 279 280 280 279 279 278 278 278 278 277 277 276 276 276 276 276 276 275
301 301 301 301 303 302 298 295 293 292 290 288 286 285 284 283 282 281 280 280 280 279 278 277 277 278 277 277 277 277 277 276 276 276 276 275 275 276 275 275 275 274 273 273
292 292 292 291 291 291 290 288 287 286 285 284 283 282 282 282 281 281 281 280 279 277 277 276 276 275 274 275 276 276 276 276 275 275 275 273 274 275 274 274 273 272 273 272
290 289 289 289 288 287 287 286 285 285 284 283 283 282 282 281 280 280 279 278 277 276 276 276 275 275 274 274 275 275 275 275 274 274 274 274 274 273 273 272 272 272 271 271
289 288 288 287 286 286 285 284 284 283 283 282 282 282 281 281 280 279 278 277 276 276 276 275 274 274 273 274 274 274 274 273 273 273 273 273 272 272 271 271 271 270 270 269
287 286 286 285 284 284 283 283 283 283 282 282 282 281 281 280 279 279 278 277 277 277 276 274 272 272 272 274 274 273 273 273 272 272 272 271 271 271 270 270 269 268 268 268
286 285 285 284 284 283 283 282 282 282 281 281 281 281 280 279 279 278 277 276 276 276 274 272 272 271 271 273 273 272 272 271 271 271 271 271 270 270 270 269 268 267 267 266
284 285 285 285 284 284 283 283 282 282 281 280 280 279 279 279 279 277 276 275 275 275 273 271 271 271 271 271 271 270 270 270 270 269 268 268 268 268 267 267 267 266 266 265
282 281 280 280 282 282 281 281 282 281 280 279 279 278 277 277 276 276 275 274 274 273 272 272 271 270 270 270 269 269 269 269 268 268 268 267 266 266 266 266 266 265 264 263
278 278 279 278 278 277 277 278 277 277 278 278 277 276 276 276 275 275 274 273 273 272 272 271 271 270 269 268 268 268 267 267 267 266 266 265 265 264 264 264 263 263 262 261

GFSNGP_925_thetae_063.txt.gz
Theta_e
319 319 322 322 322 320 321 324 328 327 326 324 322 320 318 318 318 317 319 322 325 324 324 327 324 321 321 321 322 320 318 319 318 317 317 316 316 315 314 313 310 309 307 306
319 320 321 321 322 320 320 319 326 325 325 321 319 317 318 319 318 318 317 319 323 326 328 328 323 319 317 317 317 319 319 316 315 315 313 312 312 309 309 307 306 305 304 303
321 320 321 320 319 320 321 321 319 324 323 318 318 317 317 316 318 318 316 316 320 326 330 327 322 318 315 314 314 315 314 312 310 309 309 308 307 306 304 303 302 302 301 301
319 320 323 320 318 319 320 320 318 317 317 316 316 315 317 315 317 316 317 318 327 327 327 323 320 318 316 314 313 312 311 311 309 308 306 305 304 303 302 301 301 300 299 300
323 323 321 320 319 320 320 320 317 316 316 315 315 318 320 318 318 318 318 319 324 325 323 319 316 315 314 312 312 311 310 309 307 306 305 304 303 302 301 301 300 300 300 299
320 324 324 320 320 320 319 320 318 319 318 318 317 318 316 317 319 319 318 322 321 322 320 317 316 314 313 312 310 309 307 307 306 304 304 303 303 302 302 301 301 300 297 296
322 324 321 321 320 320 322 319 319 319 320 319 317 316 315 317 318 317 317 318 318 317 317 316 314 312 310 308 308 307 306 305 305 304 304 303 302 301 301 298 295 293 291 290
321 321 324 320 320 320 319 318 319 318 319 320 318 317 317 317 317 316 315 315 315 314 313 312 311 310 309 308 307 306 305 305 304 304 303 302 300 297 296 295 294 292 290 288
318 319 320 321 321 319 320 321 321 320 321 320 319 317 317 316 315 314 313 313 313 312 311 311 310 309 307 306 305 305 304 304 302 301 299 297 295 294 292 292 291 289 289 287
319 318 318 318 319 320 319 320 319 319 319 320 321 317 315 314 312 311 310 311 312 311 309 309 309 307 306 305 304 302 301 299 298 297 296 294 291 291 290 289 288 287 287 285
319 318 319 318 317 319 316 317 319 318 319 318 317 316 315 313 311 310 310 311 310 309 308 308 307 306 304 302 301 298 296 295 293 291 289 288 289 288 288 286 286 286 285 284
318 317 318 317 316 318 319 319 318 317 318 317 316 315 312 311 309 308 309 309 308 309 308 305 303 302 301 300 299 295 292 291 290 288 287 287 286 283 282 282 281 282 282 280
310 311 311 313 316 318 319 317 315 315 315 317 317 314 312 310 308 309 308 308 307 305 301 300 299 299 299 298 295 292 289 288 288 287 286 284 283 282 280 280 281 281 281 280
312 314 312 312 316 314 313 312 312 313 313 314 315 312 309 308 307 306 305 303 300 296 292 290 289 288 291 291 290 289 288 287 286 285 285 285 284 284 282 281 281 280 280 279
313 314 315 315 314 313 311 310 310 310 311 311 311 309 307 306 303 299 297 294 292 289 288 286 286 286 287 287 286 286 285 285 284 284 283 283 283 282 282 281 281 281 280 279
310 312 312 312 313 312 310 309 308 308 308 307 306 301 297 295 293 292 291 291 287 286 284 284 284 284 284 284 284 284 283 284 283 281 281 281 281 280 280 280 280 279 279 278
309 309 309 309 310 310 308 306 305 303 299 297 293 289 288 286 284 283 282 282 281 280 280 280 281 282 282 282 282 282 281 281 280 280 280 279 279 279 278 278 278 278 277 276
301 300 300 299 301 300 297 296 295 293 291 287 286 285 284 283 282 281 281 280 279 279 279 281 282 282 283 282 281 280 279 279 279 278 278 277 277 277 276 277 276 276 275 274
294 295 294 294 294 293 291 289 288 286 285 284 283 282 281 281 281 281 281 281 280 278 277 279 280 280 279 279 279 278 278 277 277 276 276 276 275 276 275 275 275 274 274 273
290 289 288 288 287 287 286 285 285 284 283 283 282 282 282 282 281 279 278 278 277 277 277 277 277 276 276 276 276 276 276 276 275 275 275 275 274 274 274 273 274 273 273 272
287 287 286 285 285 284 284 284 283 283 282 282 281 280 280 279 279 278 277 277 276 276 276 276 275 274 275 275 275 275 275 274 274 274 274 273 273 273 273 272 272 272 271 270
285 285 284 284 283 283 283 282 282 282 281 281 280 280 279 278 277 277 277 276 276 276 275 275 274 274 274 274 274 274 273 273 273 272 272 272 272 271 271 271 270 270 269 268
285 284 283 283 283 282 282 282 281 281 281 280 280 280 279 279 278 277 277 277 276 275 274 273 272 273 273 273 273 273 272 272 271 271 271 271 271 270 270 269 269 269 268 267
284 284 283 282 282 282 282 281 281 280 280 280 280 279 278 277 277 277 276 276 275 274 272 272 271 271 272 272 271 271 270 270 270 269 269 269 268 268 267 267 267 267 267 266
280 281 282 282 282 282 282 281 280 279 278 278 278 277 277 276 275 275 275 274 273 272 271 271 270 271 271 270 269 269 269 269 268 268 267 267 266 266 266 265 265 265 265 264
279 278 278 277 278 278 278 278 279 278 277 277 276 276 275 275 274 274 273 273 272 272 271 270 270 269 268 268 268 268 267 267 266 266 265 265 265 264 264 263 263 263 262 262
276 276 276 275 275 274 274 275 274 274 275 274 273 272 272 273 273 272 272 271 270 269 269 268 268 267 267 266 266 266 265 265 265 264 264 263 263 262 262 262 261 261 260 260

GFSNGP_925_thetae_066.txt.gz
Theta_e
317 317 318 320 320 318 319 320 323 322 324 322 321 320 320 318 314 316 316 320 321 320 325 323 324 327 328 328 328 327 323 322 324 321 325 319 320 323 321 320 320 317 315 311
320 317 318 318 318 319 319 318 319 322 322 320 319 318 318 316 318 315 317 319 321 322 325 322 321 322 323 326 325 323 321 318 317 318 315 316 316 316 317 314 311 310 308 308
323 318 318 320 319 319 319 319 321 324 322 321 320 319 317 317 316 315 315 316 321 325 326 322 320 318 318 320 320 318 316 314 313 311 311 312 313 311 309 308 307 306 305 304
320 316 323 319 317 317 318 318 317 318 319 320 320 319 315 315 315 315 313 313 319 324 326 321 318 316 315 315 315 314 312 311 310 309 307 306 305 305 305 305 304 303 302 302
322 319 320 319 318 318 318 318 317 317 315 314 314 315 318 316 314 315 312 315 319 325 323 318 315 315 314 313 313 313 311 310 308 307 305 304 303 303 303 302 301 301 300 299
318 322 322 318 316 318 319 320 317 317 317 317 315 315 314 316 316 317 319 321 321 320 317 315 314 313 313 311 311 312 310 309 308 306 304 303 303 302 301 300 299 299 299 298
319 322 319 318 319 318 322 319 318 318 318 317 315 315 314 316 318 318 320 319 320 319 317 315 314 313 311 310 310 309 308 306 305 304 303 303 302 301 300 300 299 299 297 293
317 320 319 319 321 321 317 318 320 319 318 316 315 316 315 317 317 317 318 316 317 316 314 314 313 312 308 308 307 306 306 304 304 303 303 302 302 301 300 299 296 292 289 287
318 317 317 318 321 319 319 319 319 319 318 318 316 315 316 316 316 316 316 314 314 312 310 312 311 311 307 306 306 305 304 303 303 303 302 303 301 299 294 293 291 288 286 284
317 315 316 316 319 317 319 317 317 318 317 317 317 315 316 314 313 312 311 311 311 310 309 307 309 308 307 306 306 304 303 302 302 301 300 298 297 295 293 290 288 287 285 283
316 316 317 317 316 315 316 316 316 317 316 316 315 317 314 314 313 312 310 309 310 309 308 306 306 305 305 304 304 302 300 297 296 294 293 291 290 290 290 289 289 288 285 285
314 315 316 316 313 314 316 314 314 316 316 314 314 315 314 312 311 310 309 308 307 307 305 304 303 302 302 303 304 300 293 292 291 289 288 287 286 284 285 286 286 286 285 285
312 312 315 313 312 313 315 315 315 315 314 314 313 313 311 310 307 307 307 307 306 301 299 299 298 297 298 300 301 297 290 288 287 287 286 284 283 282 281 280 280 279 279 279
308 312 314 313 311 312 311 311 311 311 310 311 310 312 308 306 306 305 303 299 294 292 290 291 291 291 293 295 293 289 287 286 286 285 284 283 282 282 282 281 281 280 281 281
305 309 310 310 310 309 309 308 309 308 307 305 303 304 304 300 296 293 291 289 288 287 287 286 285 285 287 288 287 285 284 284 284 284 284 284 284 283 282 282 282 282 281 279
304 304 307 308 308 306 306 306 305 301 298 294 293 291 290 289 288 287 287 287 286 284 283 282 282 283 285 286 285 284 284 285 285 284 283 282 281 281 281 281 280 279 279 279
303 302 301 303 303 300 298 297 296 293 291 289 288 286 285 284 283 282 281 281 282 282 282 282 282 284 285 286 286 285 284 282 281 281 281 280 280 279 279 279 278 278 277 277
296 297 297 297 297 296 293 290 289 288 286 285 284 283 282 282 282 281 281 281 280 280 280 281 282 282 282 282 282 281 281 280 279 279 278 278 277 277 277 277 276 276 275 275
291 291 291 291 290 289 288 286 285 284 283 282 282 282 282 282 281 280 279 278 278 277 277 280 280 279 279 279 279 279 278 277 277 277 276 276 275 275 275 275 274 274 273 273
287 286 285 285 285 285 285 284 283 283 283 282 280 280 279 278 278 277 277 276 276 276 276 277 277 276 276 276 276 276 276 275 275 275 274 274 274 274 274 273 273 272 272 272
285 284 284 283 283 282 282 282 282 281 280 280 279 279 278 278 277 277 277 276 276 275 275 275 275 275 275 275 275 274 274 274 273 273 273 272 272 272 272 271 271 271 270 270
283 283 282 282 282 281 281 281 281 280 280 279 278 278 277 277 277 276 276 275 274 274 274 273 274 274 274 274 273 273 272 272 272 271 271 271 270 270 270 269 269 269 268 268
283 282 282 282 281 281 280 280 280 279 279 279 278 278 278 277 277 276 274 273 273 272 272 272 273 273 272 272 271 270 270 270 269 269 269 268 268 267 267 267 267 267 267 267
283 283 282 281 281 280 280 279 279 278 278 277 277 277 276 275 274 273 273 272 272 271 271 271 271 271 270 269 269 269 269 268 268 267 267 267 266 266 265 265 265 265 265 264
278 278 278 279 279 280 279 278 277 277 276 276 276 275 275 274 274 272 272 271 271 270 270 269 269 268 268 267 267 267 266 266 266 265 265 265 264 264 263 263 263 262 262 262
277 276 275 275 276 276 276 276 275 275 274 273 272 272 273 272 272 271 271 270 270 269 268 268 267 267 266 266 266 265 265 265 264 264 263 263 262 262 262 261 261 260 260 260
274 275 274 273 273 273 273 272 272 271 270 269 269 269 270 270 270 269 269 268 267 267 266 265 265 264 264 264 264 263 263 263 262 262 262 261 261 261 260 260 259 259 258 258

GFSNGP_925_thetae_072.txt.gz
Theta_e
321 321 320 321 320 317 315 316 318 317 317 315 315 315 314 315 314 313 313 311 313 318 319 321 322 320 319 318 317 317 317 317 316 316 316 316 316 318 320 320 320 320 322 321
320 319 319 319 319 316 315 315 315 315 316 314 313 312 313 314 314 314 314 313 311 314 315 319 321 322 321 320 318 318 318 318 318 318 318 318 319 320 322 322 322 321 322 321
318 319 318 316 317 316 315 314 316 317 316 315 316 316 316 316 315 314 314 313 312 314 316 316 318 322 322 322 321 319 318 319 319 319 320 320 321 322 321 320 320 320 319 319
315 316 319 313 315 313 316 316 314 314 315 316 315 315 314 313 314 314 312 313 311 313 315 319 321 321 322 322 322 321 320 320 320 321 321 321 320 319 317 316 316 316 315 311
312 317 315 312 311 317 313 314 312 315 315 313 314 312 311 310 311 312 312 312 310 311 315 320 321 322 322 321 321 322 322 321 320 319 317 317 316 314 311 310 308 307 306 305
315 316 316 309 312 313 315 313 315 317 316 314 312 315 313 312 310 310 308 307 308 311 317 319 320 321 320 319 319 319 317 317 315 315 315 315 314 311 309 307 304 303 302 302
317 317 314 311 316 316 319 313 315 317 316 316 313 313 312 311 312 311 314 315 316 316 316 317 317 319 318 317 317 317 315 314 315 315 313 311 307 305 303 301 300 298 297 296
316 317 316 312 317 321 317 313 314 317 317 315 314 313 313 312 312 313 315 317 316 314 313 313 315 316 316 315 313 314 314 312 310 309 307 304 303 300 299 298 295 293 292 290
311 311 310 312 313 313 313 313 314 316 317 315 313 313 312 312 312 313 315 314 314 313 311 311 313 313 313 309 313 312 310 306 305 304 303 302 301 298 295 294 291 289 288 285
311 308 309 308 310 311 313 314 314 315 317 317 315 313 312 311 312 312 313 313 312 311 310 308 311 311 310 310 311 308 304 303 301 300 298 297 297 296 294 291 289 288 286 284
309 308 310 308 308 311 312 313 315 316 316 313 312 313 313 313 313 312 312 311 311 309 307 306 308 307 307 307 307 303 300 297 296 295 295 293 292 292 293 293 295 292 289 288
307 309 308 309 308 308 310 310 312 313 314 313 312 311 312 312 310 310 310 308 308 306 304 304 304 304 304 305 306 303 296 294 294 293 291 290 289 287 289 290 290 290 289 287
308 304 304 305 307 305 307 308 307 304 301 302 302 305 307 307 303 300 299 297 296 296 295 295 297 297 299 300 301 297 293 291 289 288 287 285 285 284 283 282 283 285 285 285
304 302 306 305 306 302 301 303 300 297 294 292 292 293 292 291 289 289 290 290 290 289 288 287 287 287 291 294 294 290 288 286 286 285 284 283 282 282 282 282 281 280 281 281
298 299 303 302 301 297 296 296 295 293 292 289 287 287 286 286 286 286 286 286 286 286 286 286 285 285 286 287 287 285 284 284 284 283 283 284 284 283 283 282 281 280 280 280
297 298 300 300 299 294 292 291 290 289 288 286 286 285 284 284 284 284 283 284 284 284 284 284 284 284 285 285 284 284 284 285 285 284 284 283 283 282 282 281 281 280 279 278
295 298 295 296 295 292 290 289 288 287 285 285 284 283 283 282 282 281 280 280 280 280 280 280 281 282 283 284 283 282 281 281 282 281 280 280 279 279 279 279 278 277 276 277
290 290 289 290 290 289 287 286 285 285 284 282 281 280 280 280 280 279 278 278 278 277 278 278 279 280 281 281 280 279 279 278 278 277 277 277 276 276 276 276 275 274 274 274
286 286 286 286 285 285 284 283 282 281 280 279 278 278 277 277 276 276 276 276 276 276 276 276 277 277 277 278 278 277 276 275 275 275 274 274 274 273 273 273 273 272 272 272
284 283 283 282 282 282 281 281 280 279 279 278 277 276 276 275 275 275 274 274 275 275 275 275 275 275 275 275 275 274 274 273 273 272 272 272 271 271 271 270 270 270 270 269
282 281 281 280 280 279 279 278 278 277 276 275 275 274 274 274 274 274 274 273 273 273 273 273 273 273 273 273 273 272 272 271 271 270 270 269 269 268 268 268 268 267 267 267
280 280 279 279 278 278 278 277 277 277 276 275 275 274 274 273 272 272 272 272 271 272 271 271 271 271 271 270 270 270 269 269 268 268 267 267 266 266 265 265 265 265 265 265
280 279 279 278 278 277 276 276 276 275 275 274 273 273 272 272 272 272 271 270 270 269 269 269 269 269 269 268 268 267 267 266 266 266 265 265 264 264 263 263 263 263 263 262
279 279 278 277 277 276 275 275 275 274 274 273 272 272 272 271 270 269 268 268 268 268 267 267 267 267 267 266 266 265 265 264 264 264 263 263 263 262 262 261 261 261 261 261
276 276 276 276 275 275 275 274 273 272 272 271 271 270 270 269 268 267 268 267 267 266 266 266 265 265 265 265 264 264 263 263 262 262 262 262 261 261 260 260 260 259 259 259
274 274 273 272 273 272 272 271 270 270 269 268 267 268 268 268 268 267 266 266 265 265 264 264 263 263 263 263 263 262 262 262 261 261 260 260 260 259 259 259 259 259 258 258
272 272 272 270 269 268 268 268 267 266 267 266 266 266 266 266 266 265 265 264 264 263 263 262 262 262 262 262 262 261 261 261 260 260 259 259 259 259 259 259 258 258 258 258

GFSNGP_925_thetae_075.txt.gz
Theta_e
316 314 316 318 319 319 320 319 319 318 317 317 319 319 319 320 317 317 317 316 316 319 322 324 323 322 320 320 319 318 317 317 316 316 316 316 316 316 316 316 317 317 317 317
319 316 315 318 318 315 319 319 317 317 317 316 317 316 314 316 316 316 317 316 317 316 318 321 323 322 321 319 318 318 318 318 317 317 316 316 316 316 316 316 317 318 318 318
318 319 319 316 314 318 316 316 317 319 317 316 317 317 317 317 318 317 317 317 317 317 316 319 321 322 321 320 319 318 318 318 318 317 317 316 316 316 317 318 319 319 319 319
317 316 319 313 314 316 315 316 316 315 314 315 315 317 317 317 318 318 317 317 317 317 317 317 318 321 323 321 319 318 319 319 318 318 318 318 318 318 319 320 320 319 319 318
319 318 315 312 311 312 316 314 318 318 319 318 317 315 315 313 313 316 317 315 315 314 314 315 317 319 321 322 321 320 320 319 319 319 319 318 318 318 319 318 316 316 315 314
315 317 317 312 312 316 314 317 317 318 320 320 318 320 318 315 313 313 312 312 312 311 311 313 318 319 320 321 322 322 321 321 320 320 318 318 318 318 317 315 313 311 308 307
314 315 315 313 313 317 317 316 315 315 317 319 319 318 316 314 315 314 314 318 318 316 316 317 319 321 322 322 321 321 318 317 318 319 318 316 315 314 311 308 306 303 301 299
313 315 315 311 316 317 315 316 314 314 314 318 318 316 315 314 314 315 316 318 317 316 314 316 319 320 320 319 315 317 317 316 316 314 313 311 310 305 303 301 298 294 293 291
315 315 312 312 313 311 314 315 314 314 313 314 317 317 315 315 314 314 315 316 314 313 311 312 315 317 314 312 315 315 313 310 309 308 306 305 304 300 297 296 293 290 289 287
311 311 311 309 309 311 311 311 312 312 313 314 317 317 317 315 315 314 314 315 314 312 311 310 311 312 311 311 312 309 304 302 302 302 300 299 297 296 294 292 290 288 287 285
310 309 310 310 310 309 308 309 309 309 312 315 315 315 313 313 312 313 312 312 311 310 308 307 306 306 307 308 308 304 300 298 296 296 295 293 293 292 292 291 291 289 287 285
310 307 307 308 308 306 305 307 305 302 301 301 301 304 306 302 302 304 306 307 306 304 302 299 300 300 302 303 306 301 296 294 293 292 290 289 288 286 288 290 290 290 288 286
306 305 305 305 306 302 301 300 300 297 295 295 295 295 294 293 292 292 293 293 294 295 293 292 291 294 294 296 298 296 292 290 289 288 287 286 285 284 283 283 285 286 286 285
301 301 306 305 305 299 297 296 296 293 291 290 290 290 290 290 290 289 289 288 289 288 289 289 289 290 292 292 291 288 286 286 285 284 284 283 283 283 282 282 282 281 281 281
295 296 298 301 300 296 294 293 293 290 289 288 287 287 288 287 286 286 286 286 285 285 286 286 286 285 287 288 289 289 288 285 284 284 284 284 283 283 282 282 282 281 280 280
294 295 297 298 296 293 292 290 290 288 288 287 286 285 284 283 282 282 281 281 282 282 282 282 282 283 284 284 283 283 283 283 283 283 282 282 283 283 282 282 281 281 280 278
292 294 292 292 293 290 289 288 287 286 285 285 284 283 282 281 280 279 279 278 278 278 279 279 279 280 281 281 281 280 280 280 280 280 280 280 280 280 280 279 278 277 276 275
288 288 288 288 288 288 286 285 284 283 282 281 279 279 278 278 278 278 277 277 277 276 276 277 278 278 279 279 279 278 278 277 277 277 277 277 277 277 277 276 276 275 274 273
285 285 285 285 284 284 283 282 281 280 279 278 277 276 276 276 276 276 276 276 276 275 274 275 277 276 276 276 277 276 275 275 275 274 274 274 274 274 273 273 273 272 272 271
282 282 281 281 280 280 280 279 278 277 277 276 275 275 275 275 275 274 273 273 272 273 273 273 274 274 274 274 274 273 273 273 272 271 271 271 271 271 270 270 270 270 269 269
280 279 279 278 278 278 277 276 276 275 274 274 274 273 273 273 273 273 273 272 271 271 272 272 272 272 272 272 272 271 270 270 269 269 269 268 268 267 267 267 266 266 266 266
279 279 278 277 277 277 276 275 275 274 274 274 274 273 273 272 271 270 269 270 269 270 269 269 269 270 270 269 269 268 267 267 267 266 266 266 265 265 264 264 264 263 263 263
279 278 277 277 276 276 275 274 274 273 273 272 272 271 270 270 270 270 269 267 268 267 267 267 268 268 267 267 266 266 265 265 264 264 263 263 263 262 262 262 261 261 261 261
278 277 277 276 275 275 275 274 273 273 272 271 271 270 270 269 268 267 267 267 267 266 266 266 266 266 266 265 265 264 264 263 263 263 262 262 261 261 261 260 260 259 260 260
275 275 275 275 275 274 273 273 272 271 270 269 269 268 267 267 267 266 265 265 265 265 264 264 264 264 264 264 263 263 262 262 262 261 261 261 260 260 259 259 259 259 259 259
274 273 272 271 272 272 271 271 271 270 269 268 266 265 266 266 266 265 264 264 264 263 263 263 263 263 262 262 262 261 261 261 261 260 260 260 259 259 259 259 259 259 259 258
272 272 271 270 269 268 268 268 268 267 266 266 265 264 265 265 264 264 263 263 262 262 262 262 262 262 261 261 261 261 261 260 260 260 259 259 259 259 258 258 258 258 258 258

GFSNGP_925_thetae_078.txt.gz
Theta_e
318 318 316 318 318 319 320 321 324 321 320 319 318 319 319 319 320 321 321 321 321 323 328 329 328 327 326 325 324 324 323 322 322 321 321 321 320 320 319 319 319 319 319 319
312 313 313 314 315 316 317 317 319 321 321 319 319 319 319 319 319 319 319 320 321 321 322 326 328 328 327 326 325 324 324 324 323 322 321 321 320 320 320 320 320 320 320 320
315 314 314 316 315 315 316 320 320 320 316 317 317 317 318 319 320 320 320 320 321 321 320 321 323 326 327 326 325 325 324 324 324 323 323 322 321 320 320 320 320 320 320 320
316 319 317 314 314 316 318 316 317 317 316 320 320 320 320 318 319 319 319 319 320 321 321 320 320 323 325 326 325 325 325 324 324 323 323 322 322 321 321 320 320 320 320 320
317 314 312 312 312 314 315 314 319 319 319 321 321 321 320 319 319 319 319 319 317 318 318 317 318 320 323 325 325 324 324 324 323 323 322 322 322 321 321 320 321 321 321 320
316 313 315 313 315 316 315 314 316 318 317 316 319 324 322 319 319 319 319 320 320 321 320 318 317 317 320 323 325 325 324 324 323 323 322 322 322 322 319 320 319 319 318 316
314 316 315 313 312 316 316 316 314 314 313 313 316 317 318 318 318 318 318 320 321 321 321 320 320 321 321 321 324 324 325 324 323 323 322 321 319 316 318 316 313 309 307 304
313 314 315 314 314 314 313 313 314 315 315 317 317 316 316 318 318 318 318 319 320 321 318 316 319 321 323 323 324 323 322 321 321 320 317 315 315 311 310 307 303 298 296 293
312 312 313 315 313 313 314 315 315 316 316 316 317 316 317 318 318 318 318 319 319 318 315 313 314 317 321 317 318 318 317 313 310 310 310 310 308 303 301 299 295 291 290 287
313 312 311 312 313 313 312 312 313 312 311 314 315 317 318 317 317 316 317 318 318 317 314 310 309 309 312 311 311 308 305 303 302 301 299 300 299 298 295 294 291 289 287 285
310 310 311 311 311 311 310 310 310 308 307 307 306 309 309 312 309 309 311 311 313 313 309 306 304 302 303 305 305 302 299 297 295 294 293 292 291 292 292 292 292 289 287 285
310 311 310 310 310 307 308 308 307 305 303 302 301 302 302 302 301 301 301 299 298 297 298 297 295 295 298 299 300 297 295 293 291 290 289 287 286 286 289 290 289 289 287 287
308 306 307 308 308 305 305 303 302 301 299 298 298 297 298 297 293 295 295 294 292 291 291 291 291 292 293 298 295 293 291 290 289 288 287 286 286 285 284 283 285 286 286 284
298 299 306 303 302 301 300 299 297 296 295 293 294 293 293 292 290 289 288 288 288 288 288 287 287 286 289 290 293 292 290 289 288 286 285 284 284 284 283 283 282 282 282 282
295 296 297 299 298 295 294 293 294 292 290 290 289 288 288 287 285 284 284 284 284 284 283 283 283 283 285 287 286 286 286 285 285 284 284 283 283 283 282 282 282 281 280 280
293 296 296 295 294 293 291 290 290 289 288 288 287 285 283 283 281 280 280 280 280 280 280 280 280 281 281 282 282 282 282 282 283 283 283 284 283 283 283 283 283 282 281 280
291 293 292 293 292 291 290 288 288 286 285 284 283 282 281 280 280 279 278 277 277 277 278 278 278 279 280 280 281 281 281 281 281 281 281 281 281 282 281 281 279 278 277 277
288 288 288 288 289 288 287 285 284 282 281 280 279 278 278 278 278 278 277 277 276 275 275 276 277 278 278 279 280 280 279 278 278 278 278 278 278 278 279 278 278 277 275 275
285 285 285 285 284 284 283 282 280 279 278 278 277 277 277 276 276 276 276 276 276 276 274 275 275 275 275 276 277 277 277 276 276 276 276 276 276 276 276 276 275 275 274 274
283 283 282 282 281 281 280 279 278 278 277 277 277 276 276 276 275 275 274 273 272 272 272 273 274 273 274 274 274 274 274 274 274 273 273 274 274 273 272 272 273 273 272 271
281 280 279 279 278 277 277 277 276 276 275 275 274 273 273 272 273 275 275 273 271 271 271 270 271 272 272 272 272 272 272 272 272 271 271 271 271 270 270 270 269 269 269 269
280 279 278 278 277 276 276 275 275 275 274 274 274 274 273 273 272 271 270 271 270 269 269 269 269 268 269 270 270 270 270 269 269 269 269 269 268 268 268 268 267 267 267 267
279 278 277 277 276 276 275 274 274 274 273 272 272 271 271 271 271 272 270 268 268 268 268 267 266 266 267 268 268 267 267 267 267 266 266 266 266 266 266 265 265 265 265 264
278 277 277 276 276 275 275 274 273 272 272 271 271 271 272 271 270 269 268 266 266 265 265 265 265 265 266 266 266 266 266 266 266 265 264 264 264 264 264 263 263 263 262 262
277 277 276 276 276 275 274 273 273 272 271 271 270 269 269 268 268 267 266 265 265 266 265 264 263 264 265 264 264 264 264 264 264 264 263 263 263 263 263 262 261 261 260 260
275 274 273 273 274 274 274 274 273 272 271 270 269 268 267 266 266 265 264 264 264 264 264 263 263 264 264 263 263 263 263 263 263 262 262 262 261 261 260 260 259 259 259 258
274 274 274 273 272 271 272 272 272 271 270 269 268 267 266 265 264 264 264 264 264 264 263 263 263 262 262 263 263 262 262 262 260 261 261 260 260 260 258 258 258 258 257 257

GFSNGP_925_thetae_084.txt.gz
Theta_e
314 320 320 323 322 323 320 323 325 324 324 325 324 322 322 321 320 320 320 320 321 322 323 329 329 330 331 331 330 328 325 325 327 327 327 327 327 326 325 325 325 325 324 323
313 315 315 316 319 317 323 323 322 321 321 323 323 319 320 320 320 320 320 322 322 322 321 322 323 330 330 330 331 330 328 326 326 327 327 327 326 326 326 325 325 325 324 324
314 313 316 320 318 317 316 316 317 318 319 319 319 318 319 320 322 322 322 321 322 322 322 321 321 322 330 330 330 331 330 329 328 326 326 328 326 325 326 326 326 325 324 323
315 314 321 316 316 316 317 316 316 317 321 319 319 318 321 321 321 321 321 321 321 322 323 324 323 323 323 323 330 330 330 330 330 329 327 327 327 326 325 325 325 325 325 325
316 315 313 312 312 312 313 314 319 320 319 318 317 317 322 319 318 319 320 320 320 321 323 323 323 322 323 323 321 329 330 330 330 330 329 328 327 326 326 325 325 324 324 324
316 314 314 310 311 314 314 314 317 317 317 316 316 320 320 317 316 316 318 320 319 321 322 319 318 319 321 324 324 324 325 329 329 329 329 329 328 328 326 326 325 325 325 325
315 316 313 312 314 314 316 319 317 317 316 317 318 317 317 317 316 317 318 319 320 321 318 314 311 312 319 318 317 319 323 323 325 329 328 328 328 328 328 327 326 325 322 317
314 315 316 313 313 316 318 316 315 315 314 315 314 314 315 316 317 318 317 317 316 317 312 306 303 304 307 307 308 310 314 312 311 315 322 327 328 324 323 320 312 306 304 301
312 312 312 316 317 315 315 315 314 313 312 312 312 313 312 314 313 312 311 309 308 307 305 301 299 298 298 299 303 304 303 300 301 303 305 307 310 311 314 315 310 298 295 291
314 315 316 316 313 312 312 312 311 311 310 310 310 309 309 310 307 307 306 303 302 300 298 295 294 293 293 295 298 298 297 293 292 291 291 295 297 297 298 298 296 292 291 287
314 314 314 312 311 310 309 308 307 308 307 307 306 306 306 305 302 301 299 297 296 294 293 291 291 290 291 293 294 294 293 293 290 288 287 286 285 286 289 291 292 290 288 286
316 309 310 308 307 307 307 306 305 305 304 304 302 302 302 301 296 295 293 291 290 289 288 287 287 287 288 290 292 291 290 289 289 288 287 286 285 284 284 284 286 287 286 285
304 303 307 305 302 301 302 302 301 300 297 296 295 295 296 295 290 290 288 286 286 285 285 285 284 284 285 287 289 288 289 288 287 286 286 286 285 284 284 283 283 283 283 283
300 301 304 301 301 300 299 299 299 296 294 292 291 290 289 287 285 284 284 283 283 283 283 283 283 283 284 285 286 286 285 285 284 284 284 283 283 283 283 282 282 282 282 282
297 299 300 299 298 298 297 297 297 294 292 290 288 286 285 283 282 280 280 281 281 280 280 281 282 283 283 284 284 284 285 284 284 283 283 283 282 282 282 281 281 281 281 281
295 298 295 296 295 295 294 292 292 291 289 288 286 284 283 281 280 279 279 279 279 279 279 280 281 281 282 283 283 282 283 283 284 284 284 283 282 281 281 281 281 281 281 280
293 292 292 291 291 291 290 288 288 286 285 284 283 283 282 281 281 280 279 278 278 278 278 278 279 280 281 281 281 281 281 281 281 281 281 280 279 278 278 278 277 277 277 277
289 288 288 288 288 289 287 285 284 282 282 281 280 279 278 278 278 277 277 276 276 275 276 276 277 278 279 279 279 279 278 278 278 278 278 278 278 278 277 277 276 276 275 274
286 286 285 285 286 285 283 282 281 280 279 278 277 277 276 275 275 274 274 274 273 273 273 275 275 276 277 277 277 277 277 277 277 276 276 276 276 276 275 275 274 274 273 272
283 282 281 281 281 281 280 280 278 278 278 277 275 275 273 274 275 274 272 272 272 272 271 273 273 274 275 275 275 276 276 276 275 274 274 275 274 274 274 274 273 273 272 271
280 280 279 278 278 278 278 277 276 276 276 275 275 274 273 272 271 273 273 272 271 271 271 271 271 272 272 273 273 273 274 273 273 273 273 273 272 272 272 272 271 271 271 270
280 279 278 277 277 276 276 275 275 274 274 274 273 274 274 274 272 270 269 270 270 269 269 269 270 271 272 271 271 271 271 271 271 271 271 271 271 270 270 270 269 269 269 268
279 278 277 277 276 275 274 274 274 273 273 273 274 273 272 271 271 270 269 268 268 268 268 268 269 270 270 270 270 270 270 269 269 269 269 269 269 268 268 268 267 267 266 267
279 279 278 277 277 276 276 275 274 273 272 271 271 271 273 272 270 269 269 268 268 267 267 267 268 268 269 268 268 268 268 268 268 268 268 267 267 267 266 266 265 265 265 265
280 279 278 278 278 277 276 275 275 274 273 272 272 271 270 269 269 268 269 268 268 268 267 267 267 267 267 267 267 267 267 266 266 266 266 266 266 265 264 264 263 263 264 263
279 278 277 278 278 278 278 277 276 275 274 272 271 270 270 269 269 269 268 268 268 268 267 266 266 267 267 267 267 267 266 265 265 265 265 265 265 264 263 263 263 263 262 262
279 278 278 277 276 275 275 275 275 274 273 272 271 271 270 269 269 269 269 269 268 268 268 267 266 265 266 266 266 266 266 265 264 264 264 263 263 263 262 261 261 261 261 261

GFSNGP_925_thetae_087.txt.gz
Theta_e
314 314 318 318 321 321 324 323 327 324 325 324 323 324 323 320 319 320 320 320 320 319 317 317 320 325 328 327 325 324 324 325 323 322 322 322 322 323 323 323 321 319 317 316
312 312 314 320 319 319 319 323 325 324 324 324 321 320 320 321 320 320 320 320 321 321 322 320 321 321 323 328 327 325 324 324 326 325 324 323 323 323 323 323 324 322 321 319
315 313 312 318 318 320 319 320 320 324 322 319 321 321 320 318 319 319 319 319 320 320 322 321 320 321 321 323 325 327 326 324 324 325 326 325 325 324 324 323 323 325 324 323
311 310 317 318 316 316 316 318 318 321 319 319 321 318 316 316 316 318 318 319 318 321 319 317 315 316 319 322 323 323 328 327 325 324 325 326 326 326 325 325 324 323 324 324
312 314 313 311 312 313 312 320 319 320 319 318 317 316 316 315 314 314 316 317 318 316 313 311 310 311 317 314 315 316 320 320 321 326 326 325 325 326 325 325 324 324 324 324
310 315 312 312 313 314 316 321 318 318 318 317 317 318 317 316 315 316 314 315 313 309 306 305 305 307 309 308 309 311 313 313 312 312 322 327 326 325 326 325 324 324 324 324
311 313 314 312 313 314 318 318 315 314 314 314 315 315 313 313 312 309 308 306 308 304 301 300 299 301 304 303 302 305 306 305 304 304 307 311 321 326 325 325 325 324 323 320
311 311 312 314 315 318 317 315 313 312 312 313 312 310 310 308 308 305 303 301 300 300 298 296 295 296 298 297 298 300 299 298 299 303 299 301 302 307 315 322 323 317 313 305
310 310 313 314 314 313 313 311 311 310 309 309 309 308 307 305 303 301 298 297 296 296 295 293 292 292 293 293 296 296 295 294 292 297 300 295 295 293 295 300 301 297 296 292
311 314 312 310 311 309 308 308 307 306 306 305 306 304 304 301 299 296 294 293 293 293 292 290 289 289 289 291 294 294 293 291 290 288 289 295 291 289 288 289 292 291 289 286
314 311 309 308 307 308 307 305 305 304 303 301 302 301 299 296 294 293 291 290 289 288 288 287 287 287 287 290 292 292 290 289 288 286 286 285 285 285 286 287 289 287 286 286
309 305 308 305 302 303 303 302 300 299 298 296 295 296 297 293 291 289 287 286 286 285 285 284 285 285 286 287 289 289 288 287 287 286 285 285 285 284 284 284 285 285 285 284
302 302 304 301 300 299 300 299 297 295 293 292 290 290 289 287 286 286 284 284 283 283 283 283 283 284 285 286 285 286 286 285 285 284 284 284 284 283 283 283 283 283 284 284
298 302 300 299 299 297 297 297 294 292 290 288 287 285 283 282 281 281 282 281 281 281 282 282 283 283 283 284 285 284 284 283 283 283 283 282 282 282 282 282 282 281 282 283
296 295 295 294 294 294 292 292 291 290 288 286 284 283 281 281 280 280 280 280 280 280 280 280 281 281 282 283 283 284 284 283 283 283 282 282 281 281 281 281 281 280 278 278
293 291 291 291 291 291 290 289 288 287 286 285 283 282 280 280 279 278 278 277 278 278 278 278 279 280 280 281 281 281 281 281 281 280 280 279 279 278 278 278 278 277 276 276
289 289 288 288 290 287 286 285 284 283 282 282 281 281 281 279 277 276 275 275 274 275 276 276 278 279 279 279 279 278 278 279 279 279 278 278 277 277 277 276 276 275 274 274
286 285 285 286 286 284 283 282 281 280 279 277 276 275 274 274 274 274 273 273 273 273 274 275 276 277 277 277 277 277 277 276 276 276 276 276 275 275 275 274 274 273 273 272
283 282 282 282 282 282 281 280 279 278 277 276 275 275 273 273 272 272 272 272 272 271 272 273 274 275 276 276 276 276 275 275 275 275 275 274 274 274 273 273 272 272 271 270
280 280 279 279 279 279 278 277 276 275 275 274 274 273 272 273 272 271 271 271 270 271 271 272 273 273 273 274 274 274 274 274 273 273 272 272 272 272 271 271 271 270 270 269
278 277 276 276 275 275 275 275 275 275 274 273 272 271 271 270 270 271 270 270 269 270 270 271 271 272 272 272 272 272 272 271 271 271 271 270 270 270 270 269 269 269 268 268
277 276 275 275 274 274 274 274 274 274 273 273 273 272 272 271 269 268 268 268 268 268 269 269 270 271 270 270 270 270 270 270 269 269 269 269 268 268 268 268 267 267 266 266
277 276 275 274 274 274 273 273 273 272 271 272 272 271 270 270 269 268 268 267 267 268 268 269 269 269 269 269 269 269 268 268 268 268 267 267 267 267 266 266 266 265 265 265
278 277 276 275 275 274 274 273 272 272 271 270 270 271 271 270 269 269 268 268 268 267 267 267 267 268 268 267 267 267 267 267 267 267 266 266 265 265 265 265 264 264 264 264
278 277 277 276 276 275 274 274 273 273 272 271 271 270 269 268 268 268 268 268 268 267 267 267 267 267 267 267 266 266 266 265 266 265 265 265 264 264 263 263 263 263 263 263
278 277 277 278 278 277 277 276 275 273 272 271 270 269 269 269 269 268 268 268 268 267 267 266 266 266 266 266 266 266 265 264 264 264 264 264 263 263 262 262 262 262 261 261
278 277 277 276 275 274 274 274 273 272 271 271 270 270 269 269 269 269 268 268 267 268 267 267 266 266 265 265 265 265 264 264 263 263 263 263 262 262 262 261 261 260 260 260

GFSNGP_925_thetae_090.txt.gz
Theta_e
313 312 317 319 318 318 322 322 327 325 325 324 324 324 325 324 320 320 321 322 322 321 320 320 321 322 326 324 323 323 322 321 321 321 321 322 322 321 320 318 317 316 314 314
311 311 312 311 318 319 319 321 323 323 324 321 322 324 322 323 321 320 321 322 322 321 319 318 318 319 320 324 324 323 323 322 322 321 321 321 321 322 322 321 320 318 316 315
312 311 308 313 317 320 316 320 318 321 321 322 322 322 321 319 318 318 319 322 320 317 315 313 313 316 316 317 319 324 324 323 323 323 322 321 321 321 322 322 322 322 320 317
311 310 309 312 311 315 319 321 317 319 321 320 318 317 317 317 319 319 319 316 312 310 308 307 308 310 310 310 312 315 317 318 319 322 323 323 322 321 321 321 321 322 322 321
310 312 311 308 310 313 317 320 319 319 319 317 318 316 315 312 311 313 311 308 306 304 303 302 302 305 307 306 306 308 308 308 309 309 313 319 324 324 323 322 322 322 322 322
308 312 311 310 312 313 316 321 317 316 317 317 316 318 315 308 306 305 304 304 301 300 298 298 298 301 302 302 302 303 303 303 302 302 305 307 310 317 324 324 324 323 323 322
308 309 311 312 314 315 317 318 314 313 313 314 314 313 308 305 302 301 299 299 298 297 296 294 294 297 298 298 298 299 299 297 297 296 298 300 305 308 310 316 323 323 323 320
308 311 311 313 315 318 314 311 311 311 310 309 309 306 304 301 298 297 295 295 295 295 293 292 291 292 294 294 295 296 295 293 292 291 292 293 297 302 304 303 302 300 299 296
308 308 311 310 310 309 309 309 308 308 307 306 305 302 300 298 295 293 292 292 292 292 291 289 289 289 290 290 293 294 292 290 288 287 288 288 288 290 295 299 295 291 290 288
312 312 309 310 307 307 306 306 303 302 301 302 302 300 297 295 293 291 290 290 289 289 288 287 287 287 287 289 291 291 290 288 286 286 285 285 286 286 286 289 290 290 289 287
313 310 308 306 305 305 303 300 299 297 295 295 296 296 293 291 290 288 288 287 286 286 286 285 285 286 286 287 289 290 288 288 286 285 285 284 284 285 285 285 286 286 285 285
306 303 305 303 301 301 300 298 295 294 292 290 290 290 289 287 286 285 285 284 284 284 284 284 284 284 285 286 287 287 286 286 285 285 284 284 284 284 284 284 284 284 284 284
301 298 299 299 298 297 298 295 293 290 289 288 286 286 285 283 283 283 282 282 282 282 283 283 283 283 284 285 284 284 284 284 284 284 284 283 283 283 283 282 282 283 283 284
294 299 297 295 294 294 294 293 290 288 286 285 283 282 282 281 281 281 280 280 280 280 281 281 281 281 282 283 284 283 283 283 282 282 282 281 281 281 280 279 278 278 278 279
292 292 292 292 292 291 290 290 289 287 286 284 282 281 281 280 279 278 278 278 278 278 278 279 279 279 281 281 281 281 281 281 281 280 280 280 279 279 278 277 277 276 276 277
289 289 289 290 289 288 287 286 286 285 285 283 281 280 279 278 276 275 275 275 275 275 276 276 277 278 279 280 279 279 279 279 279 278 278 277 277 277 276 275 274 274 273 273
288 287 287 288 286 285 284 283 283 282 281 279 281 278 277 276 275 274 273 273 273 273 274 275 276 277 278 278 278 277 277 277 277 277 276 276 275 275 274 274 273 272 272 272
283 283 284 284 284 283 282 280 279 279 278 276 275 274 273 273 273 272 272 272 273 273 273 274 275 276 276 277 277 276 276 276 276 275 275 274 274 273 273 272 272 271 270 270
281 281 281 281 280 280 279 278 277 276 274 274 273 272 272 271 271 271 271 271 271 271 272 273 274 275 275 275 275 275 275 274 274 273 273 273 272 272 271 271 270 269 269 269
279 279 278 278 278 278 277 276 275 273 273 273 272 271 271 271 270 270 269 269 269 270 271 272 272 272 273 273 274 273 273 272 272 272 271 271 270 270 269 269 269 268 268 267
275 275 274 274 273 273 274 274 273 273 272 272 271 270 269 269 270 270 269 269 269 270 270 271 271 271 271 271 272 271 271 271 270 270 270 269 269 269 269 268 268 267 267 266
274 273 273 273 273 273 273 273 273 273 272 272 271 271 270 269 268 268 268 268 268 269 269 269 270 270 270 270 270 270 269 269 269 269 268 268 267 267 267 267 266 266 266 265
275 274 274 273 273 272 273 272 272 272 271 271 270 270 269 269 268 268 267 268 268 268 268 268 268 269 269 268 268 268 268 267 267 267 267 266 266 266 265 265 265 265 264 264
275 274 274 274 273 273 272 272 271 271 270 270 271 270 269 269 268 268 268 267 267 267 267 267 267 267 267 267 267 267 266 266 266 266 265 265 265 264 264 264 264 263 263 263
277 276 275 275 274 274 273 273 272 272 271 270 270 269 268 268 268 268 268 267 267 267 267 267 267 266 266 266 265 265 265 265 265 265 264 264 263 263 263 263 263 262 262 262
277 277 276 276 276 275 274 274 274 272 270 269 269 269 269 268 268 268 268 268 267 267 266 266 266 266 265 265 265 264 264 264 264 263 263 263 263 262 262 262 261 261 261 261
277 277 276 275 274 274 274 273 272 272 271 270 269 269 269 269 268 268 268 267 267 267 267 266 265 265 265 264 264 264 264 263 263 263 262 262 262 261 261 261 260 260 260 260

GFSNGP_925_thetae_093.txt.gz
Theta_e
312 314 313 316 317 318 319 320 323 322 323 323 324 323 322 320 321 323 323 321 320 320 319 319 319 320 322 323 322 322 321 320 321 321 321 320 319 319 318 317 316 314 313 312
309 310 312 313 309 308 316 319 320 322 322 320 323 322 321 320 321 320 321 317 315 314 313 313 315 313 314 316 319 322 322 321 320 320 321 321 321 320 319 318 318 317 316 314
310 308 308 308 311 312 318 317 319 323 321 320 323 322 319 321 318 320 315 312 310 309 307 307 309 308 308 310 312 318 321 321 321 321 321 321 320 321 321 320 319 318 317 316
309 307 307 306 306 317 318 318 317 318 320 319 318 314 314 316 315 312 309 307 305 304 302 301 304 306 306 306 307 307 307 308 308 311 315 319 321 321 320 320 321 320 320 318
307 308 305 306 310 312 313 316 319 321 319 317 315 313 310 307 306 305 304 302 301 299 298 297 299 303 303 302 303 303 302 302 302 302 306 307 311 315 321 321 321 321 322 321
306 309 306 309 313 313 315 319 317 318 319 318 316 317 310 305 302 300 299 299 298 296 294 294 294 298 299 299 299 299 298 297 296 296 299 299 299 303 308 314 319 322 321 321
308 309 308 308 312 314 315 314 313 315 315 315 312 310 304 301 298 297 296 295 296 294 292 291 291 294 295 296 297 296 294 292 291 292 293 294 296 297 298 302 308 314 308 302
307 310 308 309 312 315 312 309 310 309 309 307 305 303 300 297 295 294 293 293 293 293 291 289 289 291 292 292 294 294 291 289 288 288 288 289 292 295 295 294 295 295 296 293
306 306 310 308 308 307 306 304 303 304 305 303 301 299 296 294 292 291 291 290 290 290 289 288 287 288 289 289 292 292 290 288 286 286 286 286 287 288 289 290 291 290 290 289
311 311 310 308 305 303 303 301 298 297 297 299 298 295 293 291 290 289 289 288 288 287 287 286 286 286 287 288 290 290 288 287 286 285 285 285 285 285 285 286 286 286 286 285
309 306 306 304 304 301 298 297 296 293 292 292 292 291 289 288 287 286 285 286 285 285 285 285 285 285 286 286 288 288 287 286 285 284 284 284 284 284 285 284 284 284 284 283
304 300 303 301 299 299 297 294 292 291 289 287 287 287 286 285 284 283 283 283 283 283 284 283 283 284 284 285 286 286 285 285 284 283 284 284 283 281 282 283 284 284 284 284
300 298 296 296 296 294 293 291 290 288 287 285 283 283 283 282 282 282 281 281 281 281 281 282 282 282 282 284 284 284 284 283 283 283 283 282 281 280 279 278 278 279 281 281
293 296 296 293 293 292 292 290 288 285 284 283 282 281 281 281 280 279 279 279 278 278 279 279 279 279 280 282 282 282 282 281 281 281 280 280 279 278 277 276 276 275 276 278
291 290 291 291 289 288 287 287 287 286 284 281 280 280 279 278 277 276 276 276 276 276 276 276 277 278 279 280 280 280 280 279 279 279 278 278 277 276 275 274 274 273 275 275
288 287 288 288 286 285 284 284 284 283 283 281 280 278 277 276 275 274 274 273 274 274 274 275 275 277 278 279 279 278 278 278 278 277 277 276 276 275 274 273 273 272 271 271
287 286 286 286 284 283 282 282 281 281 279 279 278 277 276 275 274 273 272 272 272 273 273 274 275 276 277 277 277 277 277 277 277 276 275 275 274 273 273 272 271 270 269 270
282 283 283 283 283 282 280 279 278 277 276 275 273 273 272 271 271 271 271 272 272 272 273 273 274 275 275 276 276 276 276 275 275 274 274 273 273 272 272 271 270 269 269 269
280 281 280 280 280 279 278 276 275 274 273 272 272 271 270 270 270 270 270 270 270 270 271 272 273 274 274 274 275 275 274 274 273 273 272 272 272 271 270 269 268 268 267 267
278 278 277 276 277 277 276 275 273 272 272 272 271 270 270 270 270 269 269 269 269 269 270 271 271 272 272 273 274 273 273 272 272 271 271 270 270 269 269 268 268 267 266 266
274 273 273 273 272 273 273 273 272 271 271 271 270 269 269 269 269 269 269 268 268 269 270 270 270 270 271 271 271 271 271 271 270 270 269 269 269 268 268 267 267 266 266 265
272 272 272 272 272 272 273 273 272 272 271 271 270 269 269 268 268 268 268 268 268 268 269 269 269 269 269 270 270 269 269 269 269 268 268 268 268 267 267 266 266 266 265 264
273 273 273 273 272 271 272 272 272 271 271 270 270 269 269 268 268 267 267 267 268 268 268 267 268 268 268 268 268 268 267 267 267 267 266 266 266 266 266 265 265 264 264 263
274 273 273 273 272 272 271 271 271 270 270 270 270 269 269 268 268 268 267 267 267 267 267 267 267 266 267 267 266 266 266 266 265 265 265 264 264 264 264 264 264 263 263 262
274 274 273 273 273 272 272 272 271 271 270 270 269 268 269 268 268 268 267 267 266 266 266 266 266 266 266 265 265 265 265 265 264 264 264 263 263 263 263 263 262 262 261 261
276 275 275 275 275 274 273 273 273 271 269 269 269 269 268 268 268 268 267 267 267 266 266 265 265 265 265 265 264 264 264 263 263 263 263 262 262 262 261 261 261 261 260 260
276 275 275 274 274 274 274 273 272 271 270 269 268 268 268 268 268 267 267 267 267 266 266 265 265 265 264 264 264 263 263 263 263 262 262 262 261 261 261 260 260 260 260 260

GFSNGP_925_thetae_096.txt.gz
Theta_e
310 310 313 313 314 315 317 318 320 317 320 319 321 322 321 320 322 319 315 314 313 313 314 315 315 317 322 321 321 320 321 321 319 319 319 319 319 318 318 317 317 317 316 314
309 308 311 312 309 307 308 309 313 318 319 318 319 321 321 321 321 316 312 309 308 307 307 309 309 309 311 312 316 321 320 320 320 320 319 319 319 319 319 318 317 316 315 315
309 308 307 305 306 315 315 317 318 319 318 316 320 321 320 320 316 312 309 306 305 303 302 303 306 305 306 306 308 310 311 311 313 318 320 320 321 320 320 319 319 318 317 316
309 307 305 302 303 314 314 317 317 316 315 318 315 311 309 310 309 306 305 303 301 299 298 298 300 302 302 302 303 302 302 302 302 305 307 311 316 318 320 320 319 319 319 319
307 308 305 305 310 313 314 315 319 320 317 315 312 311 307 304 303 302 301 299 297 296 295 295 295 299 300 300 299 298 297 297 296 298 300 301 302 304 307 312 316 320 320 319
306 308 304 303 311 310 312 316 313 318 318 317 313 316 307 301 299 298 297 297 294 293 292 292 292 296 297 297 296 295 293 292 292 293 294 294 296 298 300 302 304 310 311 308
307 309 308 307 309 310 314 313 310 312 315 314 308 304 299 296 295 294 294 294 294 292 290 290 290 293 293 294 294 292 290 289 289 290 290 291 292 294 296 297 297 295 294 293
307 309 307 308 309 311 309 304 305 306 306 305 302 298 296 294 293 292 291 291 291 291 289 288 288 290 291 290 292 290 288 287 287 287 287 288 288 290 291 292 292 291 290 288
307 306 308 306 306 303 301 300 299 301 300 299 297 295 293 291 290 290 289 288 289 288 288 287 287 287 288 288 290 289 288 286 286 286 286 286 285 286 287 288 287 287 286 285
307 308 307 305 301 301 299 298 295 295 295 295 293 292 290 288 287 286 286 286 286 286 286 285 285 285 286 287 289 288 287 286 285 284 283 284 285 285 285 285 284 284 284 283
307 303 303 301 300 298 296 295 292 290 290 290 290 288 288 286 285 284 283 284 284 284 284 284 284 284 284 286 287 287 286 285 284 284 283 282 281 282 283 284 284 284 284 284
302 298 300 298 297 295 293 291 290 289 287 285 285 285 285 284 282 282 281 281 281 281 281 281 281 281 283 284 285 285 285 284 284 283 283 282 280 279 279 281 281 282 282 282
295 296 295 294 293 292 290 288 286 285 284 283 283 282 282 281 281 280 279 279 279 279 279 279 279 279 281 282 282 283 283 283 282 282 281 280 279 278 277 277 277 278 279 279
291 294 295 290 290 289 289 287 285 283 282 282 281 280 279 279 278 277 277 277 277 277 277 277 277 278 279 280 281 281 281 281 280 279 278 278 277 276 275 274 274 273 274 276
289 289 290 287 285 285 284 285 285 284 282 280 279 278 277 276 276 275 275 275 275 275 275 275 276 276 278 279 279 279 279 278 278 278 277 277 276 275 274 274 273 273 273 274
287 286 287 285 284 283 282 282 283 281 282 279 278 277 276 275 274 273 273 273 273 272 273 274 275 275 277 277 277 277 277 277 277 277 276 275 275 274 273 272 271 270 271 271
286 285 285 285 283 281 281 280 279 279 278 277 276 276 275 274 273 272 272 272 272 272 272 273 273 275 276 276 277 276 276 276 276 275 274 274 273 272 271 270 269 268 268 269
282 282 282 282 282 280 279 277 276 276 275 273 272 271 271 270 270 270 270 271 272 271 272 272 272 274 274 275 275 275 275 275 274 273 273 272 272 271 270 269 268 268 267 268
280 280 280 279 278 277 276 275 274 273 272 271 271 269 269 269 269 269 270 270 269 269 270 271 272 273 273 274 274 274 274 274 273 272 272 271 271 270 269 268 267 267 266 266
278 277 276 275 275 275 274 273 272 271 271 271 270 269 269 269 269 269 269 268 268 268 269 270 271 271 271 272 273 273 272 272 271 271 270 270 269 268 267 267 266 266 266 265
273 273 272 272 271 272 273 273 272 271 271 271 271 269 268 268 268 269 268 267 268 269 269 269 269 269 270 270 271 271 271 270 270 269 269 268 268 267 267 266 266 265 265 264
271 271 271 271 271 271 272 272 271 271 271 270 269 268 268 268 268 267 267 267 268 268 268 268 268 268 269 269 269 269 269 268 268 268 268 267 267 267 266 266 265 265 264 264
272 272 272 272 272 271 271 271 271 271 270 270 269 269 268 268 267 267 267 267 267 267 267 267 267 267 267 267 267 267 267 267 266 266 266 266 265 265 265 265 264 264 263 263
273 273 272 272 272 272 271 271 271 270 270 270 269 269 269 268 268 267 267 267 267 267 266 266 266 266 266 266 266 265 265 265 265 264 264 264 264 264 264 263 263 263 262 262
274 273 273 272 272 272 272 271 271 270 270 269 269 268 268 268 268 267 267 266 266 266 266 266 265 265 265 265 264 264 264 264 264 263 263 263 262 262 262 262 262 262 261 261
274 274 274 274 274 274 273 272 272 271 270 269 269 268 268 268 268 267 267 267 266 266 265 265 265 264 264 264 264 263 263 263 263 262 262 262 262 261 261 261 261 261 260 260
275 275 274 274 274 274 274 273 273 271 270 269 269 268 268 268 267 267 267 266 266 266 266 265 265 264 264 264 264 263 263 263 262 262 262 261 261 261 260 260 260 260 260 260

GFSNGP_925_thetae_099.txt.gz
Theta_e
310 310 312 312 312 311 311 313 316 314 315 313 315 318 322 321 316 313 311 308 307 306 308 308 309 311 313 319 321 321 321 320 320 320 319 319 317 317 317 316 315 316 316 316
309 308 310 309 308 306 308 311 312 312 312 313 316 316 321 320 314 311 308 306 304 303 302 305 305 306 306 307 316 320 321 321 320 320 319 319 318 318 316 316 315 315 315 315
306 308 308 305 305 306 313 316 316 318 317 316 317 314 316 312 309 307 305 303 301 301 299 299 302 303 302 302 302 303 304 305 309 314 315 317 319 319 319 318 317 315 315 315
308 308 304 303 305 308 309 312 316 318 318 315 311 306 304 303 304 302 301 299 298 297 297 296 299 300 300 298 298 297 297 298 300 302 304 307 311 311 314 315 317 318 318 318
308 307 306 306 311 310 311 308 314 318 316 311 310 308 301 297 296 298 297 296 294 293 293 294 296 297 298 297 295 293 293 294 294 296 297 298 299 301 305 307 309 308 308 311
308 307 307 306 308 309 311 312 310 312 316 311 312 311 304 296 294 294 294 294 292 291 291 291 293 295 296 295 293 292 291 291 291 293 293 294 294 295 297 298 296 296 295 295
309 308 308 308 308 309 305 309 307 306 308 308 305 301 295 293 293 291 291 292 292 290 289 289 290 292 292 293 292 290 290 289 289 290 290 290 291 292 293 292 292 290 290 289
308 308 308 307 308 310 306 302 303 302 300 299 297 295 293 292 291 290 289 290 290 289 288 288 288 289 290 291 290 289 288 288 287 287 288 288 289 289 290 290 289 287 287 286
308 310 306 304 303 301 300 299 299 300 298 297 294 292 291 289 288 287 287 287 288 287 287 286 286 287 288 288 289 288 287 287 286 285 286 286 286 287 287 287 287 287 286 286
305 304 300 301 299 298 296 293 292 293 294 293 292 290 289 287 286 285 285 285 285 285 285 284 284 285 285 286 288 287 286 286 285 284 284 284 284 284 285 285 285 286 286 285
304 300 301 297 297 295 293 292 290 288 288 289 289 288 286 285 284 283 283 283 283 283 282 282 282 282 283 285 287 287 286 286 285 283 282 282 281 282 283 283 284 284 283 283
300 297 297 296 294 292 290 289 287 287 286 285 285 285 284 283 282 281 281 281 281 281 281 281 281 281 281 282 284 286 286 285 284 284 283 282 281 280 280 280 281 281 281 281
295 295 293 291 291 290 289 287 285 284 283 283 282 282 281 280 279 279 279 279 279 279 279 279 279 279 279 280 281 281 283 283 283 282 282 281 280 279 278 276 277 278 279 279
290 294 293 289 288 287 287 285 283 282 281 280 280 279 279 278 277 277 277 277 277 277 277 277 277 277 277 278 279 279 279 279 279 279 278 278 278 277 277 277 276 275 275 276
289 290 288 286 284 284 284 284 284 283 281 279 278 278 277 277 276 275 275 275 275 275 275 275 275 275 276 277 277 277 279 278 277 277 276 276 276 276 275 275 275 274 274 273
287 287 286 285 283 282 282 282 282 281 280 279 278 277 276 275 274 274 274 273 274 273 273 273 273 273 275 276 276 277 276 276 276 276 276 276 275 275 274 273 272 272 271 271
288 285 285 285 283 281 280 279 279 278 277 276 275 275 275 274 273 273 272 272 271 271 271 271 272 274 275 276 276 275 275 275 275 275 275 274 274 273 272 271 271 270 268 267
282 282 282 282 281 280 278 277 276 275 274 273 271 271 270 270 271 270 269 270 271 270 270 271 271 273 274 275 275 274 274 274 274 273 273 273 272 271 271 270 269 269 268 267
280 280 280 279 278 277 276 275 274 272 271 270 270 268 269 269 269 269 269 269 269 270 269 270 271 272 273 272 274 273 273 273 272 272 271 271 270 270 269 268 267 267 267 266
277 277 276 275 276 275 274 273 272 271 270 270 270 269 268 268 269 269 268 267 267 267 268 269 270 270 271 271 272 272 271 271 271 270 270 269 269 268 267 266 266 266 265 265
274 273 273 272 270 271 271 271 271 269 269 269 268 267 267 268 268 268 268 269 267 268 268 268 269 268 269 269 270 270 269 269 268 268 268 267 267 267 266 265 265 264 264 263
271 271 270 271 271 270 271 271 271 270 270 269 269 268 268 267 267 267 267 267 267 267 267 267 267 268 268 268 268 268 268 267 267 267 266 266 266 265 265 264 264 263 263 262
272 272 272 272 272 271 271 271 271 271 270 269 269 268 268 268 268 268 268 267 267 267 266 266 266 266 267 267 267 266 266 266 266 266 265 265 265 264 264 263 263 263 262 262
272 272 272 271 271 271 271 271 271 270 270 269 269 269 268 268 267 267 266 266 266 266 266 266 265 265 265 265 265 265 265 264 264 264 264 264 264 264 263 263 262 262 262 261
273 272 272 272 272 272 271 271 270 270 270 269 268 268 268 268 268 267 266 266 266 266 265 265 265 264 264 264 264 264 264 263 263 263 263 262 262 262 262 262 262 261 261 261
273 273 273 273 273 273 273 272 272 271 270 269 268 268 268 268 267 267 267 266 266 266 265 265 265 264 264 264 263 263 263 263 262 262 262 262 261 261 261 261 261 261 260 260
274 274 274 274 273 273 273 273 273 272 270 269 269 268 268 267 267 267 266 266 266 266 265 265 265 264 264 264 263 263 263 263 262 262 262 261 261 261 261 260 260 260 260 260

GFSNGP_925_thetae_102.txt.gz
Theta_e
310 311 312 312 312 311 311 312 315 313 315 315 317 319 319 319 314 312 311 305 303 303 303 305 306 307 309 320 321 322 322 322 322 321 321 320 320 320 320 320 320 320 320 321
307 309 310 309 308 306 307 312 315 316 317 318 314 313 312 311 309 308 305 303 300 300 300 303 303 303 304 305 306 310 311 313 321 321 320 320 320 319 319 319 319 319 319 320
308 306 306 306 307 308 310 311 315 318 319 316 306 302 301 302 303 302 301 299 297 296 297 299 300 301 300 299 300 300 301 302 305 308 310 314 318 319 320 320 320 319 319 319
307 307 304 306 309 309 309 313 315 317 313 308 304 300 297 297 298 297 297 296 294 293 294 296 298 298 297 297 297 296 296 297 298 300 301 304 306 308 311 313 316 317 316 317
307 306 308 312 311 311 311 312 310 312 313 311 307 306 299 295 294 294 294 295 293 292 291 292 295 297 296 296 295 294 294 294 295 295 297 298 298 299 301 302 302 301 299 301
308 307 308 311 309 309 310 314 308 308 308 312 308 315 301 295 293 293 292 292 292 292 291 291 292 295 295 293 294 293 292 292 293 293 295 295 296 295 294 293 292 292 291 292
309 310 310 309 309 309 312 311 305 304 301 300 299 298 295 292 291 290 291 291 291 290 290 290 291 292 292 292 292 292 291 291 291 292 292 293 293 294 292 291 289 289 288 287
309 310 313 305 308 311 306 301 301 300 300 299 296 295 293 291 290 289 289 290 290 290 288 288 288 290 291 291 290 290 290 289 289 290 290 291 292 292 292 291 290 288 287 286
307 307 302 300 299 297 297 297 298 299 297 296 295 293 291 290 289 288 287 288 288 288 288 286 286 287 288 289 289 289 288 289 288 288 288 288 289 290 290 291 291 290 290 289
307 301 299 299 297 295 294 294 293 293 294 294 294 291 289 288 287 286 286 286 287 288 287 286 285 285 286 287 288 288 288 287 285 285 286 287 286 286 287 288 288 288 288 287
305 302 299 296 295 295 293 293 293 291 291 291 291 290 288 287 286 284 284 285 285 286 286 285 285 285 285 286 288 288 288 287 286 285 284 283 281 283 283 282 284 285 285 285
302 297 298 296 294 292 291 290 289 290 289 288 288 288 287 286 284 284 283 283 283 283 284 283 283 283 283 284 285 287 287 286 286 286 285 285 283 280 279 280 280 281 281 282
297 295 293 292 292 290 289 288 288 287 287 287 285 285 284 283 282 282 282 282 282 281 282 282 282 281 281 282 283 283 284 284 284 284 284 284 284 283 281 278 277 278 279 279
293 294 293 291 290 289 288 287 285 284 284 283 283 283 282 282 281 281 280 280 280 280 280 280 280 279 279 280 281 282 282 281 282 282 282 282 282 281 282 281 280 278 275 276
291 290 289 288 287 287 287 287 287 285 284 282 281 281 281 280 279 278 278 278 278 278 278 278 277 277 278 279 280 280 281 281 281 280 280 280 280 280 280 280 279 279 278 277
290 288 287 286 286 285 285 285 285 283 282 281 280 279 279 278 278 277 276 275 276 276 275 275 275 275 276 278 280 280 279 279 280 280 280 280 279 279 279 278 277 276 275 275
289 289 288 286 285 283 282 282 281 280 280 279 278 278 277 277 276 275 275 274 273 273 273 273 274 273 274 275 278 279 279 279 279 279 279 278 278 278 277 277 276 274 272 271
286 285 284 284 284 282 281 279 279 278 277 275 274 273 272 273 273 272 272 272 272 272 271 271 272 272 273 274 276 278 278 278 278 278 277 277 277 276 276 275 275 274 273 270
283 283 282 281 280 280 279 278 276 275 273 272 272 271 271 271 271 271 271 271 272 273 271 270 271 272 272 272 275 276 277 277 276 276 275 275 275 274 274 273 272 272 271 270
281 280 279 279 278 278 277 275 275 273 272 271 270 271 271 269 269 270 271 270 269 269 270 269 271 272 272 271 273 275 275 275 275 274 274 274 273 272 270 270 271 271 270 269
278 277 276 275 273 272 272 271 271 271 269 269 270 269 269 269 268 269 273 274 270 268 269 270 269 270 270 271 272 273 273 273 273 273 273 272 272 271 271 270 270 269 269 268
275 274 273 273 273 272 271 271 270 270 269 268 268 268 269 270 269 269 268 270 270 268 269 269 268 267 268 269 270 271 271 271 271 271 271 271 271 270 270 269 268 268 267 267
275 274 273 273 274 273 272 271 270 270 270 269 270 270 271 271 271 272 272 269 269 268 269 267 266 266 267 268 269 269 268 268 268 268 268 268 268 268 268 268 267 266 266 266
275 275 274 273 273 274 275 273 273 271 270 271 269 269 270 272 271 270 269 268 266 267 266 266 265 265 266 267 267 267 267 267 267 267 266 266 266 266 266 266 265 265 264 264
275 274 274 274 275 277 275 274 273 272 272 272 271 270 270 270 270 269 269 268 266 268 267 265 265 265 266 266 266 266 266 266 265 266 266 265 265 265 265 264 264 264 263 263
276 277 277 276 276 276 276 275 275 275 274 273 272 271 270 269 269 269 268 267 267 267 267 267 266 266 266 266 265 265 265 265 265 265 264 264 264 264 263 263 263 263 263 262
277 276 277 276 276 275 275 275 275 275 274 273 272 270 270 269 269 268 267 268 267 267 267 267 266 266 265 265 265 265 265 265 264 264 264 264 263 264 263 262 262 262 261 260